Laatste waarneming: 11:31
Temperatuur:19,6°C
Dauwpunt:17,9°C
Rel. vocht:90,0%
Natte-bol:19,0°C
Wind (gem. 10 min.):8,7 m/s
Wind (max. 10 min.):10.2819 m/s
Windrichting:249°
Neerslagsom:1,6 mm
Neerslagintensiteit:0,0 mm/u
Luchtdruk:1014,3 hPa
Straling:311,9 W/m2
 
Maximumtemp.:19,6°C (11:31)
Minimumtemp.:17,0°C (00:34)
Hoogste windstoot:12,5 m/s (09:27)


Bekijk de verwachting.

Bekijk de grafieken.
Bekijk het weekoverzicht.
Bekijk het maandoverzicht.
Bekijk het jaaroverzicht.
Dagtabel
Tijd Temp. Dauwp. Natte-bol Rel. Hum. Windsnelh. Windricht. Windstoot Neerslag Straling Luchtdruk
 
11:31 19,6 17,9 19,0 90,0 8,7 249 - 1,6 312 1.014,3
11:30 19,6 17,9 19,0 90,0 8,5 222 - 1,6 188 1.014,4
11:29 19,6 17,9 19,0 90,0 8,3 240 - 1,6 188 1.014,4
11:28 19,6 17,9 19,0 90,0 8,3 244 - 1,6 239 1.014,3
11:27 19,5 18,0 19,0 91,0 8,4 223 - 1,6 359 1.014,3
11:26 19,6 18,0 19,0 91,0 8,3 223 - 1,6 525 1.014,3
11:25 19,5 18,0 19,0 91,0 8,2 251 - 1,6 635 1.014,2
11:24 19,5 18,0 19,0 91,0 8,2 243 - 1,6 623 1.014,2
11:23 19,4 17,9 18,9 91,0 8,5 263 - 1,6 233 1.014,3
11:22 19,4 17,9 18,9 91,0 8,9 263 - 1,6 213 1.014,3
11:21 19,4 17,9 18,9 91,0 8,9 267 - 1,6 199 1.014,3
11:20 19,4 17,9 18,9 91,0 8,1 252 - 1,6 434 1.014,3
11:19 19,4 17,9 18,9 91,0 8,2 209 - 1,6 603 1.014,3
11:18 19,4 17,9 18,9 91,6 8,6 201 - 1,6 258 1.014,3
11:17 19,3 18,0 18,9 92,0 8,2 211 - 1,6 217 1.014,4
11:16 19,3 18,0 18,9 92,0 7,9 229 - 1,6 215 1.014,4
11:15 19,3 17,9 18,8 92,0 7,6 219 - 1,6 214 1.014,4
11:14 19,3 17,9 18,8 92,0 7,6 232 - 1,6 184 1.014,4
11:13 19,3 17,9 18,8 92,0 7,7 210 11,2 1,6 175 1.014,4
11:12 19,2 17,9 18,8 92,0 7,9 205 11,2 1,6 173 1.014,4
11:11 19,2 17,9 18,8 92,0 7,5 209 - 1,6 160 1.014,4
11:10 19,2 17,8 18,7 92,0 7,1 224 - 1,6 170 1.014,4
11:09 19,2 17,9 18,7 92,4 6,9 203 - 1,6 116 1.014,4
11:08 19,2 18,0 18,8 93,0 7,0 225 - 1,6 106 1.014,4
11:07 19,2 17,9 18,7 92,6 6,8 200 - 1,6 131 1.014,4
11:06 19,2 17,9 18,8 92,6 6,8 240 - 1,6 113 1.014,4
11:05 19,2 18,0 18,8 93,0 7,2 221 - 1,6 95 1.014,3
11:04 19,2 18,0 18,8 93,0 7,4 232 - 1,6 89 1.014,3
11:03 19,2 18,0 18,8 93,0 6,8 193 10,7 1,6 86 1.014,3
11:02 19,2 18,0 18,8 93,0 5,6 191 - 1,6 91 1.014,4
11:01 19,2 18,0 18,8 93,0 5,8 253 - 1,6 104 1.014,4
11:00 19,2 18,0 18,8 93,0 6,6 210 10,3 1,6 131 1.014,5
 
10:59 19,1 18,0 18,7 93,0 6,9 231 - 1,6 158 1.014,4
10:58 19,1 17,9 18,7 93,0 6,3 226 9,4 1,6 171 1.014,4
10:57 19,1 17,9 18,7 93,0 6,3 182 9,4 1,6 172 1.014,4
10:56 19,1 17,9 18,7 93,0 6,0 228 9,4 1,6 165 1.014,4
10:55 19,1 17,9 18,7 93,0 5,7 193 - 1,6 153 1.014,4
10:54 19,0 17,9 18,7 93,0 5,5 229 9,4 1,6 152 1.014,4
10:53 19,0 17,9 18,6 93,0 6,1 198 - 1,6 158 1.014,4
10:52 19,0 17,9 18,7 93,0 6,8 226 - 1,6 152 1.014,4
10:51 19,1 17,9 18,7 93,0 7,3 222 - 1,6 136 1.014,3
10:50 19,0 17,9 18,6 93,0 7,4 219 - 1,6 123 1.014,3
10:49 19,1 17,9 18,7 93,0 7,4 211 - 1,6 121 1.014,4
10:48 19,1 17,9 18,7 93,0 7,0 225 10,3 1,6 113 1.014,4
10:47 19,1 18,1 18,8 93,8 6,5 239 - 1,6 117 1.014,4
10:46 19,2 18,2 18,8 94,0 6,1 205 9,8 1,6 151 1.014,5
10:45 19,1 18,1 18,8 94,0 5,8 217 - 1,6 195 1.014,5
10:44 19,2 18,1 18,8 94,0 5,1 187 - 1,6 221 1.014,4
10:43 19,1 18,1 18,8 94,0 5,0 256 - 1,6 223 1.014,4
10:42 19,1 18,1 18,8 94,0 5,3 230 - 1,6 212 1.014,3
10:41 19,1 18,1 18,7 94,0 5,5 226 - 1,6 204 1.014,2
10:40 19,0 18,0 18,7 94,0 5,6 201 - 1,6 234 1.014,2
10:39 19,0 18,0 18,7 94,0 4,9 224 - 1,6 256 1.014,2
10:38 19,0 18,0 18,6 94,0 4,5 238 - 1,6 221 1.014,1
10:37 18,9 17,9 18,6 94,0 4,5 223 - 1,6 191 1.014,1
10:36 18,9 17,9 18,6 94,0 4,3 188 - 1,6 175 1.014,1
10:35 18,9 17,9 18,6 94,0 4,1 232 - 1,6 171 1.014,1
10:34 18,9 17,9 18,6 94,0 4,4 238 - 1,6 176 1.014,1
10:33 18,9 17,9 18,5 94,0 4,6 205 - 1,6 181 1.014,1
10:32 18,9 17,9 18,5 94,0 4,1 232 - 1,6 189 1.014,0
10:31 18,9 17,9 18,5 94,0 4,1 165 - 1,6 182 1.014,1
10:30 18,8 17,8 18,5 94,0 4,3 211 - 1,6 130 1.014,1
10:29 18,8 17,8 18,5 94,0 4,3 182 - 1,6 115 1.014,1
10:28 18,8 17,8 18,5 94,0 4,6 222 - 1,6 132 1.014,1
10:27 18,8 17,8 18,5 94,0 5,0 205 - 1,6 140 1.014,2
10:26 18,8 17,8 18,5 94,0 4,8 213 - 1,6 149 1.014,2
10:25 18,8 17,8 18,4 94,0 4,9 209 - 1,6 155 1.014,2
10:24 18,7 17,7 18,4 94,0 5,2 210 - 1,6 145 1.014,2
10:23 18,7 17,7 18,4 94,0 5,2 186 - 1,6 116 1.014,2
10:22 18,7 17,7 18,4 94,0 5,6 227 - 1,6 90 1.014,1
10:21 18,7 17,7 18,4 94,0 6,3 215 9,4 1,6 89 1.014,1
10:20 18,7 17,7 18,4 94,0 6,3 219 - 1,6 94 1.014,1
10:19 18,7 17,7 18,4 94,0 5,9 223 - 1,6 94 1.014,1
10:18 18,7 17,7 18,4 94,0 5,8 237 - 1,6 85 1.014,2
10:17 18,7 17,7 18,3 94,0 5,8 217 - 1,6 75 1.014,2
10:16 18,7 17,7 18,3 94,0 6,1 238 - 1,6 73 1.014,2
10:15 18,7 17,7 18,4 94,0 6,4 213 - 1,6 81 1.014,2
10:14 18,7 17,7 18,4 94,0 6,4 217 - 1,6 96 1.014,2
10:13 18,7 17,7 18,4 94,0 6,1 252 - 1,6 115 1.014,2
10:12 18,7 17,7 18,4 94,0 6,1 224 - 1,6 150 1.014,2
10:11 18,7 17,7 18,3 94,0 6,3 226 - 1,6 190 1.014,1
10:10 18,7 17,7 18,3 94,0 6,6 224 - 1,6 206 1.014,1
10:09 18,7 17,7 18,3 94,0 6,4 232 - 1,6 194 1.014,1
10:08 18,7 17,6 18,3 94,0 6,0 228 - 1,6 174 1.014,1
10:07 18,6 17,6 18,3 94,0 5,9 216 - 1,6 153 1.014,1
10:06 18,6 17,6 18,2 94,0 5,8 213 - 1,6 169 1.014,1
10:05 18,6 17,6 18,2 94,0 6,3 247 - 1,6 202 1.014,2
10:04 18,5 17,5 18,2 94,0 6,4 226 - 1,6 187 1.014,1
10:03 18,5 17,5 18,2 94,0 6,4 207 - 1,6 165 1.014,1
10:02 18,5 17,5 18,2 94,0 6,6 192 - 1,6 157 1.014,1
10:01 18,5 17,5 18,2 94,0 6,8 218 - 1,6 147 1.014,1
10:00 18,5 17,5 18,2 94,0 6,7 233 - 1,6 140 1.014,1
 
09:59 18,5 17,5 18,1 94,0 6,7 234 - 1,6 119 1.014,1
09:58 18,5 17,5 18,2 94,0 6,8 236 - 1,6 106 1.014,2
09:57 18,5 17,5 18,2 94,0 7,0 253 - 1,6 96 1.014,2
09:56 18,5 17,5 18,2 94,0 7,2 218 - 1,6 80 1.014,1
09:55 18,5 17,5 18,2 94,0 7,2 240 - 1,6 70 1.014,1
09:54 18,5 17,5 18,2 94,0 6,5 209 - 1,6 87 1.014,1
09:53 18,5 17,5 18,2 94,0 6,0 237 - 1,6 138 1.014,2
09:52 18,5 17,5 18,1 94,0 6,0 230 - 1,6 176 1.014,1
09:51 18,5 17,4 18,1 94,0 6,1 218 - 1,6 162 1.014,0
09:50 18,4 17,4 18,1 94,0 6,2 214 - 1,6 140 1.014,0
09:49 18,4 17,4 18,1 94,0 6,5 229 - 1,6 126 1.014,1
09:48 18,4 17,4 18,1 94,0 7,2 224 - 1,6 118 1.014,1
09:47 18,4 17,4 18,1 94,0 7,3 234 10,3 1,6 106 1.014,1
09:46 18,4 17,4 18,0 94,0 6,5 267 9,8 1,6 84 1.014,1
09:45 18,4 17,3 18,0 94,0 6,2 191 9,8 1,6 69 1.014,0
09:44 18,3 17,3 18,0 94,0 7,1 215 - 1,6 59 1.014,0
09:43 18,3 17,3 18,0 94,0 7,3 220 - 1,6 51 1.014,0
09:42 18,3 17,3 18,0 94,0 7,1 218 - 1,6 48 1.014,0
09:41 18,3 17,3 18,0 94,0 7,1 255 - 1,6 49 1.014,0
09:40 18,3 17,3 18,0 94,0 7,5 227 - 1,6 56 1.013,9
09:39 18,3 17,3 18,0 94,0 7,8 219 - 1,6 67 1.013,9
09:38 18,3 17,3 18,0 94,0 8,0 255 - 1,6 79 1.013,9
09:37 18,3 17,3 18,0 94,0 8,3 236 - 1,6 79 1.013,9
09:36 18,3 17,3 18,0 94,0 8,5 259 - 1,6 66 1.013,8
09:35 18,3 17,3 18,0 94,0 8,6 235 - 1,6 57 1.013,8
09:34 18,3 17,3 18,0 94,0 8,9 223 - 1,6 56 1.013,9
09:33 18,3 17,3 18,0 94,0 8,9 243 - 1,6 58 1.013,9
09:32 18,3 17,3 18,0 94,0 8,9 259 - 1,6 69 1.013,8
09:31 18,4 17,4 18,0 94,0 8,0 232 - 1,6 79 1.013,9
09:30 18,4 17,4 18,0 94,0 8,0 186 11,2 1,6 86 1.014,0
09:29 18,3 17,3 18,0 94,0 8,0 252 12,1 1,6 86 1.013,9
09:28 18,3 17,3 18,0 94,0 9,5 240 - 1,6 90 1.013,7
09:27 18,3 17,3 18,0 94,0 9,9 239 - 1,6 95 1.013,8
09:26 18,3 17,3 18,0 94,0 9,6 238 - 1,6 49 1.014,1
09:25 18,3 17,3 18,0 94,0 8,8 226 - 1,6 43 1.014,1
09:24 18,3 17,3 17,9 94,0 7,7 228 11,2 1,6 33 1.014,2
09:23 18,2 17,2 17,9 94,0 6,5 243 - 1,6 29 1.014,2
09:22 18,2 17,2 17,9 94,0 5,7 218 - 1,6 26 1.014,2
09:21 18,2 17,2 17,9 94,0 5,5 232 - 1,6 26 1.014,2
09:20 18,2 17,2 17,9 94,0 5,1 226 - 1,6 36 1.014,2
09:19 18,2 17,2 17,9 94,0 4,9 188 - 1,4 30 1.014,2
09:18 18,2 17,2 17,8 94,0 4,7 208 - 1,4 26 1.014,2
09:17 18,2 17,2 17,8 94,0 4,8 218 - 1,4 24 1.014,2
09:16 18,2 17,2 17,8 94,0 5,2 204 - 1,4 20 1.014,2
09:15 18,2 17,2 17,8 94,0 5,5 222 - 1,4 23 1.014,2
09:14 18,2 17,2 17,8 94,0 5,4 225 - 1,4 33 1.014,2
09:13 18,1 17,1 17,8 94,0 5,1 233 - 1,2 33 1.014,3
09:12 18,1 17,1 17,8 94,0 4,6 230 - 1,2 26 1.014,3
09:11 18,1 17,1 17,8 94,0 4,2 222 - 1,2 23 1.014,3
09:10 18,1 17,1 17,8 94,0 4,1 213 - 1,2 25 1.014,2
09:09 18,1 17,1 17,8 94,0 4,2 228 - 1,0 26 1.014,3
09:08 18,1 17,1 17,8 94,0 4,2 219 - 1,0 26 1.014,3
09:07 18,1 16,9 17,7 93,2 4,6 182 - 1,0 28 1.014,2
09:06 18,1 16,9 17,7 93,2 4,7 192 - 1,0 36 1.014,2
09:05 18,1 17,1 17,7 94,0 4,2 185 - 1,0 40 1.014,2
09:04 18,1 17,0 17,7 93,6 4,0 227 - 1,0 34 1.014,2
09:03 18,1 16,9 17,7 93,0 4,2 177 - 1,0 26 1.014,2
09:02 18,1 16,9 17,7 93,0 4,3 176 - 0,8 21 1.014,2
09:01 18,1 16,9 17,7 93,0 4,2 199 - 0,8 27 1.014,2
09:00 18,1 16,9 17,7 93,0 4,4 210 - 0,8 30 1.014,2
 
08:59 18,0 16,9 17,7 93,0 4,5 186 - 0,8 31 1.014,1
08:58 18,1 16,9 17,7 93,0 4,1 190 - 0,8 32 1.014,1
08:57 18,0 16,9 17,7 93,0 3,6 199 - 0,8 30 1.014,1
08:56 18,0 16,9 17,6 93,0 3,0 172 - 0,8 26 1.014,1
08:55 18,0 16,9 17,6 93,0 3,1 229 - 0,8 28 1.014,1
08:54 18,0 16,9 17,6 93,0 3,4 207 - 0,8 31 1.014,1
08:53 18,0 16,8 17,6 93,0 3,4 197 - 0,8 36 1.014,0
08:52 18,0 16,8 17,6 93,0 3,8 197 - 0,8 37 1.014,0
08:51 18,0 16,8 17,6 93,0 3,9 197 - 0,8 48 1.014,0
08:50 17,9 16,8 17,6 93,0 3,7 204 - 0,8 58 1.014,0
08:49 17,9 16,8 17,6 93,0 3,5 224 - 0,8 60 1.014,1
08:48 17,9 16,8 17,6 93,0 3,6 247 - 0,6 64 1.014,1
08:47 17,9 16,8 17,5 93,0 3,0 218 - 0,6 68 1.014,0
08:46 17,9 16,8 17,6 93,0 2,7 183 - 0,6 63 1.014,0
08:45 17,9 16,8 17,5 93,0 2,7 226 - 0,6 64 1.013,9
08:44 17,9 16,7 17,5 93,0 3,0 168 - 0,6 58 1.014,0
08:43 17,9 16,7 17,5 93,0 3,5 149 - 0,6 51 1.014,0
08:42 17,9 16,7 17,5 93,0 3,2 199 - 0,6 45 1.014,1
08:41 17,9 16,7 17,5 93,0 3,2 149 - 0,6 44 1.014,0
08:40 17,9 16,7 17,5 93,0 3,0 210 - 0,6 40 1.014,0
08:39 17,9 16,7 17,5 93,0 3,3 214 - 0,6 35 1.014,1
08:38 17,9 16,7 17,5 93,0 3,1 186 - 0,6 36 1.014,1
08:37 17,9 16,7 17,5 93,0 3,6 151 - 0,6 35 1.014,1
08:36 17,9 16,7 17,5 93,0 4,0 201 - 0,6 31 1.014,1
08:35 17,9 16,7 17,5 93,0 4,1 205 - 0,6 32 1.014,0
08:34 17,9 16,7 17,5 93,0 3,6 140 - 0,6 36 1.014,0
08:33 17,9 16,7 17,5 93,0 3,3 227 - 0,4 34 1.014,0
08:32 17,9 16,7 17,5 93,0 3,6 153 - 0,4 29 1.014,0
08:31 17,9 16,7 17,5 93,0 4,1 170 - 0,4 24 1.014,0
08:30 17,9 16,7 17,5 93,0 4,6 211 - 0,4 22 1.014,0
08:29 17,9 16,7 17,5 93,0 4,8 186 - 0,4 25 1.014,0
08:28 17,9 16,7 17,5 93,0 4,5 204 - 0,4 21 1.014,0
08:27 17,9 16,7 17,5 93,0 4,7 208 - 0,4 18 1.014,0
08:26 17,9 16,7 17,5 93,0 4,9 193 - 0,4 17 1.014,0
08:25 17,9 16,7 17,5 93,0 4,8 184 - 0,4 18 1.014,0
08:24 17,8 16,7 17,4 93,0 4,4 205 - 0,4 20 1.014,0
08:23 17,8 16,7 17,5 93,0 4,3 209 - 0,4 23 1.014,0
08:22 17,8 16,7 17,5 93,0 4,0 180 - 0,4 23 1.014,0
08:21 17,8 16,7 17,4 93,0 3,8 207 - 0,4 24 1.013,9
08:20 17,8 16,7 17,4 93,0 4,2 209 - 0,4 25 1.014,0
08:19 17,8 16,6 17,4 92,8 4,6 186 - 0,4 25 1.014,0
08:18 17,8 16,5 17,4 92,0 4,7 226 - 0,4 25 1.013,9
08:17 17,8 16,5 17,4 92,0 4,7 204 - 0,4 23 1.013,9
08:16 17,8 16,5 17,4 92,0 4,2 221 - 0,4 21 1.013,9
08:15 17,8 16,4 17,3 92,0 3,7 201 - 0,4 22 1.013,9
08:14 17,8 16,5 17,3 92,0 3,5 221 - 0,4 27 1.013,9
08:13 17,8 16,5 17,3 92,0 3,6 201 - 0,4 30 1.013,8
08:12 17,8 16,4 17,3 92,0 3,5 211 - 0,4 24 1.013,8
08:11 17,8 16,4 17,3 92,0 3,6 199 - 0,4 21 1.013,8
08:10 17,8 16,4 17,3 92,0 3,9 222 - 0,4 21 1.013,8
08:09 17,8 16,4 17,3 92,0 3,3 203 - 0,4 19 1.013,8
08:08 17,8 16,4 17,3 92,0 2,9 144 - 0,4 20 1.013,8
08:07 17,8 16,4 17,3 92,0 2,7 184 - 0,4 22 1.013,8
08:06 17,8 16,4 17,3 92,0 3,3 217 - 0,4 24 1.013,9
08:05 17,8 16,4 17,3 92,0 3,3 213 - 0,4 23 1.013,9
08:04 17,8 16,4 17,3 92,0 3,3 150 - 0,4 18 1.013,9
08:03 17,8 16,4 17,3 92,0 3,2 225 - 0,4 12 1.014,0
08:02 17,8 16,4 17,3 92,0 3,3 192 - 0,2 12 1.014,0
08:01 17,8 16,4 17,3 92,0 3,2 192 - 0,2 11 1.014,0
08:00 17,8 16,4 17,3 92,0 3,2 209 - 0,2 15 1.014,0
 
07:59 17,8 16,4 17,3 92,0 3,1 206 - 0,2 16 1.014,0
07:58 17,8 16,4 17,3 92,0 1,9 186 - 0,2 22 1.014,0
07:57 17,8 16,4 17,3 92,0 2,2 75 - 0,2 27 1.014,1
07:56 17,8 16,4 17,3 92,0 2,5 185 - 0,2 27 1.014,1
07:55 17,8 16,4 17,3 92,0 3,2 186 - 0,2 23 1.014,1
07:54 17,8 16,4 17,3 92,0 3,3 235 - 0,2 21 1.014,0
07:53 17,8 16,4 17,3 92,0 3,6 209 - 0,2 23 1.014,0
07:52 17,8 16,4 17,3 92,0 3,6 178 - 0,2 24 1.014,0
07:51 17,8 16,4 17,3 92,0 3,0 183 - 0,2 17 1.014,1
07:50 17,8 16,4 17,3 92,0 2,6 113 - 0,2 14 1.014,1
07:49 17,8 16,4 17,3 91,7 2,5 197 - 0,2 13 1.014,1
07:48 17,8 16,3 17,3 91,0 3,0 209 - 0,2 12 1.014,1
07:47 17,8 16,3 17,3 91,0 3,1 206 - 0,2 12 1.014,2
07:46 17,8 16,3 17,3 91,0 3,4 203 - 0,2 11 1.014,2
07:45 17,8 16,3 17,3 91,0 3,5 209 - 0,2 9 1.014,2
07:44 17,8 16,3 17,3 91,0 3,3 217 - 0,2 8 1.014,3
07:43 17,8 16,3 17,3 91,0 3,5 220 - 0,2 6 1.014,3
07:42 17,8 16,3 17,3 91,0 3,5 228 - 0,2 5 1.014,3
07:41 17,8 16,3 17,3 91,0 3,6 178 - 0,2 5 1.014,3
07:40 17,8 16,3 17,3 91,0 3,7 190 - 0,2 0 1.014,3
07:39 17,8 16,3 17,3 91,0 4,2 209 - 0,2 0 1.014,3
07:38 17,8 16,3 17,3 91,0 4,5 190 - 0,2 0 1.014,2
07:37 17,8 16,3 17,3 91,0 4,1 188 - 0,2 0 1.014,2
07:36 17,8 16,3 17,3 91,0 3,3 224 - 0,2 0 1.014,3
07:35 17,8 16,3 17,3 91,0 3,2 210 - 0,2 0 1.014,2
07:34 17,8 16,3 17,3 91,0 3,2 216 - 0,2 0 1.014,2
07:33 17,8 16,3 17,3 91,0 3,4 182 - 0,2 0 1.014,2
07:32 17,8 16,3 17,3 91,0 3,2 202 - 0,2 0 1.014,3
07:31 17,8 16,3 17,3 91,0 2,8 192 - 0,2 0 1.014,3
07:30 17,8 16,3 17,3 91,0 2,9 236 - 0,2 0 1.014,2
07:29 17,9 16,3 17,4 91,0 3,3 214 - 0,2 0 1.014,3
07:28 17,9 16,3 17,4 91,0 3,4 190 - 0,2 0 1.014,3
07:27 17,9 16,4 17,4 91,0 3,7 163 - 0,2 0 1.014,3
07:26 17,9 16,4 17,4 91,0 3,7 194 - 0,0 0 1.014,3
07:25 17,9 16,4 17,4 91,0 3,2 179 - 0,0 0 1.014,3
07:24 17,9 16,4 17,4 91,0 2,8 209 - 0,0 4 1.014,2
07:23 17,9 16,3 17,9 90,4 3,0 208 - 0,0 4 1.014,3
07:22 17,9 16,2 17,8 90,0 3,3 192 - 0,0 2 1.014,3
07:21 17,9 16,2 17,8 90,0 3,6 191 - 0,0 5 1.014,3
07:20 17,9 16,2 17,8 90,0 3,9 187 - 0,0 2 1.014,3
07:19 17,9 16,2 17,9 90,0 4,2 204 - 0,0 0 1.014,3
07:18 17,9 16,2 17,9 90,0 4,1 199 - 0,0 0 1.014,3
07:17 17,9 16,2 17,9 90,0 4,0 197 - 0,0 0 1.014,4
07:16 17,9 16,3 17,9 90,0 4,3 202 - 0,0 0 1.014,4
07:15 17,9 16,3 17,9 90,0 4,5 207 - 0,0 0 1.014,4
07:14 17,9 16,3 17,9 90,0 4,4 165 - 0,0 0 1.014,3
07:13 17,9 16,3 17,9 90,0 3,9 192 - 0,0 0 1.014,3
07:12 17,9 16,3 17,9 90,0 3,9 221 - 0,0 0 1.014,3
07:11 17,9 16,2 17,9 90,0 3,8 199 - 0,0 0 1.014,3
07:10 17,9 16,2 17,8 90,0 4,2 183 - 0,0 0 1.014,3
07:09 17,9 16,2 17,8 90,0 4,5 209 - 0,0 0 1.014,3
07:08 17,9 16,2 17,8 90,0 4,5 215 - 0,0 0 1.014,3
07:07 17,9 16,2 17,8 90,0 3,9 198 - 0,0 0 1.014,3
07:06 17,9 16,2 17,8 90,0 3,3 176 - 0,0 0 1.014,3
07:05 17,9 16,2 17,8 90,0 3,4 253 - 0,0 0 1.014,2
07:04 17,8 16,2 17,8 90,0 3,9 213 - 0,0 0 1.014,2
07:03 17,8 16,2 17,8 90,0 3,8 178 - 0,0 0 1.014,2
07:02 17,8 16,2 17,8 90,0 3,3 242 - 0,0 0 1.014,1
07:01 17,8 16,1 17,7 89,6 3,5 208 - 0,0 0 1.014,1
07:00 17,8 16,0 17,6 89,0 3,8 210 - 0,0 0 1.014,1
 
06:59 17,8 16,0 17,6 89,0 3,9 173 - 0,0 0 1.014,1
06:58 17,8 15,9 17,6 89,0 4,3 195 - 0,0 0 1.014,0
06:57 17,8 15,9 17,6 89,0 4,6 209 - 0,0 0 1.014,0
06:56 17,8 15,9 17,6 89,0 4,5 215 - 0,0 0 1.014,0
06:55 17,8 15,9 17,6 89,0 4,2 191 - 0,0 0 1.013,9
06:54 17,8 15,9 17,6 89,0 4,2 182 - 0,0 0 1.013,9
06:53 17,8 15,9 17,6 89,0 3,8 172 - 0,0 0 1.013,9
06:52 17,8 15,9 17,5 89,0 3,5 199 - 0,0 0 1.013,9
06:51 17,8 15,9 17,6 89,0 3,4 177 - 0,0 0 1.013,9
06:50 17,8 15,9 17,6 89,0 3,6 159 - 0,0 0 1.014,0
06:49 17,7 15,9 17,5 89,0 3,9 180 - 0,0 0 1.014,0
06:48 17,7 15,9 17,5 89,0 4,3 186 - 0,0 0 1.014,0
06:47 17,7 15,9 17,5 89,0 4,2 175 - 0,0 0 1.013,9
06:46 17,8 15,9 17,5 89,0 3,7 179 - 0,0 0 1.014,0
06:45 17,7 15,9 17,5 89,0 3,2 170 - 0,0 0 1.014,0
06:44 17,7 15,9 17,5 89,0 3,3 151 - 0,0 0 1.014,0
06:43 17,7 15,9 17,5 89,0 3,5 196 - 0,0 0 1.014,1
06:42 17,7 15,9 17,5 89,0 3,8 209 - 0,0 0 1.014,1
06:41 17,7 15,9 17,5 89,0 3,9 186 - 0,0 0 1.014,1
06:40 17,7 15,9 17,5 89,0 3,7 171 - 0,0 0 1.014,1
06:39 17,7 15,9 17,5 89,0 3,4 198 - 0,0 0 1.014,1
06:38 17,7 15,9 17,5 89,0 3,8 194 - 0,0 0 1.014,0
06:37 17,7 15,8 17,4 88,5 4,2 229 - 0,0 0 1.014,0
06:36 17,7 15,7 17,4 88,0 3,1 194 - 0,0 0 1.014,0
06:35 17,7 15,7 17,4 88,0 3,1 116 - 0,0 0 1.014,0
06:34 17,7 15,7 17,4 88,0 3,4 194 - 0,0 0 1.014,1
06:33 17,8 15,7 17,4 88,0 3,6 188 - 0,0 0 1.014,0
06:32 17,7 15,7 17,4 88,0 3,1 186 - 0,0 0 1.014,1
06:31 17,8 15,7 17,4 88,0 3,1 190 - 0,0 0 1.014,1
06:30 17,7 15,7 17,4 88,0 3,4 190 - 0,0 0 1.014,1
06:29 17,8 15,8 17,4 88,0 3,3 234 - 0,0 0 1.014,2
06:28 17,8 15,7 17,4 88,0 3,2 196 - 0,0 0 1.014,3
06:27 17,8 15,7 17,4 88,0 3,3 208 - 0,0 0 1.014,3
06:26 17,8 15,8 17,4 88,0 3,6 217 - 0,0 0 1.014,3
06:25 17,8 15,8 17,4 88,0 3,6 196 - 0,0 0 1.014,2
06:24 17,8 15,8 17,4 88,0 3,3 180 - 0,0 0 1.014,2
06:23 17,8 15,8 17,5 88,0 3,2 236 - 0,0 0 1.014,2
06:22 17,8 15,8 17,5 88,0 3,5 177 - 0,0 0 1.014,2
06:21 17,8 15,7 17,4 87,7 3,8 192 - 0,0 0 1.014,2
06:20 17,8 15,6 17,3 87,0 3,5 197 - 0,0 0 1.014,2
06:19 17,8 15,6 17,4 87,0 3,6 153 - 0,0 0 1.014,3
06:18 17,8 15,6 17,3 87,0 4,2 186 - 0,0 0 1.014,3
06:17 17,8 15,6 17,4 87,0 4,3 161 - 0,0 0 1.014,3
06:16 17,8 15,6 17,4 87,0 3,7 207 - 0,0 0 1.014,4
06:15 17,8 15,6 17,4 87,0 3,5 214 - 0,0 0 1.014,3
06:14 17,9 15,7 17,4 87,0 3,8 191 - 0,0 0 1.014,3
06:13 17,9 15,7 17,4 87,0 3,8 205 - 0,0 0 1.014,3
06:12 17,9 15,7 17,4 87,0 3,7 239 - 0,0 0 1.014,2
06:11 17,9 15,7 17,4 87,0 3,6 199 - 0,0 0 1.014,2
06:10 17,9 15,7 17,4 87,0 3,4 194 - 0,0 0 1.014,2
06:09 17,9 15,7 17,4 87,0 3,5 263 - 0,0 0 1.014,2
06:08 17,9 15,7 17,4 87,0 3,9 196 - 0,0 0 1.014,2
06:07 17,9 15,7 17,4 87,0 4,2 213 - 0,0 0 1.014,3
06:06 17,9 15,6 17,3 86,2 3,9 181 - 0,0 0 1.014,3
06:05 17,9 15,5 17,3 86,0 3,8 203 - 0,0 0 1.014,3
06:04 17,9 15,5 17,3 86,0 4,3 211 - 0,0 0 1.014,3
06:03 17,9 15,5 17,3 86,0 4,7 206 - 0,0 0 1.014,3
06:02 17,9 15,5 17,3 86,0 4,9 198 - 0,0 0 1.014,4
06:01 17,9 15,5 17,3 86,0 4,7 219 - 0,0 0 1.014,4
06:00 17,9 15,5 17,3 86,0 4,4 168 - 0,0 0 1.014,4
 
05:59 17,9 15,5 17,3 86,0 4,3 213 - 0,0 0 1.014,4
05:58 17,8 15,5 17,2 86,0 4,7 195 - 0,0 0 1.014,4
05:57 17,8 15,4 17,2 85,6 4,6 215 - 0,0 0 1.014,3
05:56 17,8 15,3 17,1 85,0 4,4 171 - 0,0 0 1.014,3
05:55 17,8 15,2 17,0 85,0 4,3 210 - 0,0 0 1.014,4
05:54 17,8 15,2 17,0 85,0 4,2 211 - 0,0 0 1.014,4
05:53 17,8 15,2 17,0 85,0 4,1 205 - 0,0 0 1.014,4
05:52 17,7 15,2 17,0 85,0 4,3 209 - 0,0 0 1.014,5
05:51 17,7 15,2 17,0 85,0 4,7 192 - 0,0 0 1.014,5
05:50 17,7 15,2 17,0 85,0 4,6 187 - 0,0 0 1.014,6
05:49 17,7 15,2 17,0 85,0 4,1 199 - 0,0 0 1.014,5
05:48 17,7 15,2 17,0 85,0 3,2 178 - 0,0 0 1.014,4
05:47 17,7 15,2 17,0 85,0 2,9 238 - 0,0 0 1.014,4
05:46 17,7 15,2 17,0 85,0 2,9 231 - 0,0 0 1.014,4
05:45 17,7 15,2 17,0 85,0 3,1 182 - 0,0 0 1.014,4
05:44 17,7 15,2 17,0 85,0 3,4 226 - 0,0 0 1.014,5
05:43 17,8 15,2 17,0 85,0 3,6 211 - 0,0 0 1.014,5
05:42 17,8 15,2 17,0 85,0 4,1 163 - 0,0 0 1.014,6
05:41 17,8 15,2 17,0 85,0 4,1 150 - 0,0 0 1.014,6
05:40 17,8 15,2 17,0 85,0 4,0 212 - 0,0 0 1.014,5
05:39 17,8 15,2 17,0 85,0 4,2 208 - 0,0 0 1.014,5
05:38 17,8 15,3 17,1 85,0 4,1 155 - 0,0 0 1.014,5
05:37 17,8 15,3 17,1 85,0 3,8 196 - 0,0 0 1.014,5
05:36 17,9 15,3 17,1 85,0 4,0 219 - 0,0 0 1.014,5
05:35 17,9 15,3 17,1 84,8 4,1 175 - 0,0 0 1.014,5
05:34 17,9 15,1 17,0 84,0 4,2 162 - 0,0 0 1.014,6
05:33 17,9 15,1 17,0 84,0 3,9 199 - 0,0 0 1.014,7
05:32 17,9 15,2 17,0 84,0 3,8 192 - 0,0 0 1.014,7
05:31 17,9 15,2 17,0 84,0 4,0 157 - 0,0 0 1.014,6
05:30 17,9 15,2 17,0 84,0 4,4 186 - 0,0 0 1.014,6
05:29 17,9 15,2 17,0 84,0 4,7 212 - 0,0 0 1.014,6
05:28 17,9 15,2 17,0 84,0 4,5 184 - 0,0 0 1.014,7
05:27 17,9 15,2 17,0 84,0 4,2 212 - 0,0 0 1.014,6
05:26 17,9 15,2 17,0 84,0 3,7 190 - 0,0 0 1.014,7
05:25 17,9 15,2 17,0 84,0 3,3 147 - 0,0 0 1.014,7
05:24 17,9 15,2 17,0 84,0 3,0 209 - 0,0 0 1.014,8
05:23 17,9 15,2 17,0 84,0 3,5 180 - 0,0 0 1.014,7
05:22 17,9 15,2 17,0 84,0 3,8 201 - 0,0 0 1.014,7
05:21 17,9 15,2 17,0 84,0 3,8 215 - 0,0 0 1.014,7
05:20 17,9 15,2 17,0 84,0 3,5 180 - 0,0 0 1.014,6
05:19 17,9 15,2 17,0 84,0 3,6 199 - 0,0 0 1.014,6
05:18 17,9 15,2 17,0 84,0 3,8 197 - 0,0 0 1.014,6
05:17 17,9 15,2 17,0 84,0 4,0 205 - 0,0 0 1.014,6
05:16 17,9 15,2 17,0 84,0 3,7 181 - 0,0 0 1.014,6
05:15 17,9 15,2 17,0 84,0 3,7 154 - 0,0 0 1.014,6
05:14 17,9 15,2 17,0 84,0 4,0 205 - 0,0 0 1.014,6
05:13 17,9 15,2 17,0 84,0 4,2 182 - 0,0 0 1.014,6
05:12 17,9 15,2 17,0 84,0 4,4 207 - 0,0 0 1.014,6
05:11 17,9 15,2 17,0 84,0 4,3 201 - 0,0 0 1.014,6
05:10 17,9 15,2 17,0 84,0 4,0 193 - 0,0 0 1.014,6
05:09 17,9 15,1 17,0 84,0 3,6 218 - 0,0 0 1.014,7
05:08 17,9 15,2 17,0 84,0 4,0 201 - 0,0 0 1.014,7
05:07 17,9 15,1 17,0 84,0 4,1 213 - 0,0 0 1.014,7
05:06 17,9 15,1 17,0 84,0 4,4 212 - 0,0 0 1.014,7
05:05 17,9 15,1 17,0 84,0 4,4 205 - 0,0 0 1.014,7
05:04 17,8 15,0 16,9 83,5 4,8 219 - 0,0 0 1.014,6
05:03 17,8 14,9 16,8 83,0 4,9 208 - 0,0 0 1.014,6
05:02 17,8 14,9 16,8 83,0 4,7 228 - 0,0 0 1.014,6
05:01 17,8 14,9 16,8 83,0 4,3 210 - 0,0 0 1.014,6
05:00 17,8 14,9 16,8 83,0 4,2 207 - 0,0 0 1.014,6
 
04:59 17,8 14,9 16,8 83,0 4,1 172 - 0,0 0 1.014,6
04:58 17,8 14,9 16,8 83,0 4,2 221 - 0,0 0 1.014,6
04:57 17,8 14,9 16,8 83,0 4,3 203 - 0,0 0 1.014,6
04:56 17,8 14,9 16,8 83,0 4,3 194 - 0,0 0 1.014,6
04:55 17,9 15,0 16,8 83,0 4,5 221 - 0,0 0 1.014,7
04:54 17,9 15,0 16,8 83,0 4,7 195 - 0,0 0 1.014,7
04:53 17,9 15,0 16,9 83,0 4,4 191 - 0,0 0 1.014,7
04:52 17,9 15,0 16,8 83,0 3,8 211 - 0,0 0 1.014,8
04:51 17,9 15,0 16,9 83,0 3,7 205 - 0,0 0 1.014,8
04:50 17,9 15,0 16,9 83,0 3,8 202 - 0,0 0 1.014,8
04:49 17,9 14,9 16,8 83,0 3,8 183 - 0,0 0 1.014,8
04:48 17,9 15,0 16,8 83,0 3,8 178 - 0,0 0 1.014,8
04:47 17,9 15,0 16,9 83,0 3,9 187 - 0,0 0 1.014,8
04:46 17,9 15,0 16,9 83,0 3,8 209 - 0,0 0 1.014,8
04:45 17,9 15,0 16,8 83,0 3,5 189 - 0,0 0 1.014,9
04:44 17,9 15,0 16,8 83,0 3,8 189 - 0,0 0 1.015,0
04:43 17,9 14,9 16,8 82,7 3,8 200 - 0,0 0 1.015,0
04:42 17,9 14,8 16,7 82,0 3,9 208 - 0,0 0 1.015,0
04:41 17,8 14,7 16,7 82,0 4,2 191 - 0,0 0 1.015,0
04:40 17,8 14,7 16,7 82,0 4,7 201 - 0,0 0 1.015,0
04:39 17,8 14,7 16,7 82,0 4,4 196 - 0,0 0 1.015,0
04:38 17,8 14,9 16,8 82,8 3,7 208 - 0,0 0 1.015,0
04:37 17,8 14,9 16,8 83,0 3,5 185 - 0,0 0 1.015,0
04:36 17,8 14,9 16,8 83,0 3,9 207 - 0,0 0 1.015,0
04:35 17,7 14,8 16,7 83,0 4,3 184 - 0,0 0 1.015,0
04:34 17,7 14,8 16,7 83,0 4,5 235 - 0,0 0 1.015,0
04:33 17,7 14,8 16,7 83,0 4,3 198 - 0,0 0 1.015,0
04:32 17,7 14,8 16,7 83,0 3,7 246 - 0,0 0 1.015,1
04:31 17,7 14,8 16,7 83,0 3,5 203 - 0,0 0 1.015,1
04:30 17,7 14,8 16,7 83,0 3,2 230 - 0,0 0 1.015,1
04:29 17,7 14,8 16,6 83,0 2,9 189 - 0,0 0 1.015,0
04:28 17,7 14,7 16,6 82,5 2,6 186 - 0,0 0 1.015,0
04:27 17,7 14,6 16,5 82,0 2,5 203 - 0,0 0 1.015,0
04:26 17,6 14,6 16,5 82,0 2,7 201 - 0,0 0 1.015,0
04:25 17,6 14,6 16,5 82,0 3,0 205 - 0,0 0 1.015,1
04:24 17,6 14,5 16,5 82,0 3,1 193 - 0,0 0 1.015,1
04:23 17,6 14,5 16,5 82,0 3,1 209 - 0,0 0 1.015,1
04:22 17,6 14,5 16,4 82,0 3,1 222 - 0,0 0 1.015,1
04:21 17,6 14,5 16,4 82,0 2,8 217 - 0,0 0 1.015,1
04:20 17,6 14,5 16,5 82,0 2,6 206 - 0,0 0 1.015,1
04:19 17,6 14,5 16,4 82,0 2,3 228 - 0,0 0 1.015,2
04:18 17,6 14,5 16,4 82,0 2,3 254 - 0,0 0 1.015,2
04:17 17,6 14,5 16,4 82,0 2,5 224 - 0,0 0 1.015,2
04:16 17,6 14,5 16,4 82,0 3,0 199 - 0,0 0 1.015,2
04:15 17,6 14,5 16,4 82,0 3,2 192 - 0,0 0 1.015,2
04:14 17,6 14,5 16,4 82,0 2,9 201 - 0,0 0 1.015,1
04:13 17,6 14,5 16,4 82,0 2,7 190 - 0,0 0 1.015,2
04:12 17,6 14,5 16,4 82,0 2,7 233 - 0,0 0 1.015,2
04:11 17,6 14,5 16,4 82,0 2,8 212 - 0,0 0 1.015,2
04:10 17,6 14,5 16,4 82,0 2,7 178 - 0,0 0 1.015,2
04:09 17,6 14,5 16,4 82,0 2,6 213 - 0,0 0 1.015,2
04:08 17,6 14,5 16,4 82,0 2,2 196 - 0,0 0 1.015,1
04:07 17,6 14,5 16,4 82,0 2,1 203 - 0,0 0 1.015,1
04:06 17,6 14,5 16,4 82,0 2,4 199 - 0,0 0 1.015,1
04:05 17,6 14,5 16,4 82,0 3,0 217 - 0,0 0 1.015,1
04:04 17,6 14,5 16,4 82,0 3,0 203 - 0,0 0 1.015,1
04:03 17,6 14,5 16,4 82,0 2,5 189 - 0,0 0 1.015,1
04:02 17,6 14,5 16,4 82,0 2,6 162 - 0,0 0 1.015,1
04:01 17,6 14,5 16,4 82,0 2,6 205 - 0,0 0 1.015,2
04:00 17,6 14,5 16,4 82,0 2,2 145 - 0,0 0 1.015,1
 
03:59 17,6 14,5 16,4 82,0 2,3 226 - 0,0 0 1.015,2
03:58 17,6 14,5 16,4 82,0 2,9 187 - 0,0 0 1.015,2
03:57 17,6 14,5 16,4 82,0 3,4 153 - 0,0 0 1.015,2
03:56 17,6 14,5 16,4 82,0 3,2 205 - 0,0 0 1.015,2
03:55 17,6 14,4 16,3 81,6 2,9 146 - 0,0 0 1.015,2
03:54 17,6 14,3 16,2 81,0 3,0 211 - 0,0 0 1.015,3
03:53 17,5 14,3 16,2 81,0 3,4 183 - 0,0 0 1.015,2
03:52 17,5 14,3 16,2 81,0 3,4 224 - 0,0 0 1.015,2
03:51 17,5 14,3 16,2 81,0 3,2 229 - 0,0 0 1.015,2
03:50 17,6 14,3 16,3 81,0 3,2 174 - 0,0 0 1.015,2
03:49 17,5 14,3 16,2 81,0 3,2 203 - 0,0 0 1.015,1
03:48 17,5 14,3 16,2 81,0 3,0 204 - 0,0 0 1.015,1
03:47 17,5 14,3 16,2 81,0 3,1 184 - 0,0 0 1.015,2
03:46 17,5 14,3 16,2 81,0 3,4 218 - 0,0 0 1.015,2
03:45 17,5 14,2 16,2 81,0 3,6 184 - 0,0 0 1.015,2
03:44 17,5 14,3 16,2 81,0 3,5 180 - 0,0 0 1.015,3
03:43 17,5 14,2 16,2 81,0 3,1 178 - 0,0 0 1.015,3
03:42 17,5 14,2 16,2 81,0 2,7 199 - 0,0 0 1.015,3
03:41 17,5 14,3 16,2 81,0 2,4 166 - 0,0 0 1.015,2
03:40 17,5 14,2 16,2 81,0 2,4 215 - 0,0 0 1.015,2
03:39 17,5 14,3 16,2 81,0 2,8 199 - 0,0 0 1.015,2
03:38 17,5 14,3 16,2 81,0 2,9 204 - 0,0 0 1.015,3
03:37 17,5 14,3 16,2 81,0 2,8 199 - 0,0 0 1.015,3
03:36 17,6 14,3 16,3 81,0 2,9 169 - 0,0 0 1.015,3
03:35 17,5 14,3 16,2 81,0 2,8 194 - 0,0 0 1.015,3
03:34 17,6 14,3 16,3 81,0 2,7 222 - 0,0 0 1.015,3
03:33 17,5 14,3 16,2 81,0 2,4 174 - 0,0 0 1.015,3
03:32 17,6 14,3 16,3 81,0 2,7 221 - 0,0 0 1.015,3
03:31 17,6 14,2 16,2 80,7 3,4 186 - 0,0 0 1.015,3
03:30 17,6 14,1 16,1 80,0 3,4 188 - 0,0 0 1.015,3
03:29 17,6 14,1 16,1 80,0 2,6 155 - 0,0 0 1.015,2
03:28 17,6 14,1 16,1 80,0 2,2 174 - 0,0 0 1.015,3
03:27 17,6 14,1 16,1 80,0 2,8 192 - 0,0 0 1.015,3
03:26 17,6 14,1 16,2 80,0 3,0 161 - 0,0 0 1.015,3
03:25 17,6 14,1 16,2 80,0 2,9 203 - 0,0 0 1.015,4
03:24 17,6 14,1 16,2 80,0 2,8 192 - 0,0 0 1.015,4
03:23 17,6 14,2 16,2 80,0 2,6 201 - 0,0 0 1.015,4
03:22 17,6 14,2 16,2 80,0 2,2 188 - 0,0 0 1.015,4
03:21 17,6 14,2 16,2 80,0 2,0 161 - 0,0 0 1.015,4
03:20 17,6 14,2 16,2 80,0 0,9 211 - 0,0 0 1.015,4
03:19 17,6 14,2 16,2 80,0 0,5 16 - 0,0 0 1.015,4
03:18 17,6 14,2 16,2 80,0 0,9 209 - 0,0 0 1.015,4
03:17 17,6 14,2 16,2 80,0 2,4 176 - 0,0 0 1.015,5
03:16 17,7 14,2 16,2 80,0 2,9 215 - 0,0 0 1.015,5
03:15 17,7 14,2 16,2 80,0 3,1 245 - 0,0 0 1.015,4
03:14 17,7 14,2 16,2 80,0 3,0 192 - 0,0 0 1.015,5
03:13 17,7 14,2 16,2 80,0 3,6 184 - 0,0 0 1.015,5
03:12 17,7 14,2 16,2 80,0 3,2 176 - 0,0 0 1.015,5
03:11 17,7 14,2 16,2 80,0 2,0 220 - 0,0 0 1.015,6
03:10 17,7 14,2 16,3 80,0 1,9 104 - 0,0 0 1.015,5
03:09 17,7 14,3 16,3 80,0 2,5 179 - 0,0 0 1.015,6
03:08 17,7 14,3 16,3 80,0 3,2 205 - 0,0 0 1.015,6
03:07 17,7 14,3 16,3 80,0 3,1 179 - 0,0 0 1.015,6
03:06 17,7 14,3 16,3 80,0 3,1 226 - 0,0 0 1.015,6
03:05 17,7 14,3 16,3 80,0 3,2 204 - 0,0 0 1.015,6
03:04 17,7 14,3 16,3 80,0 2,9 222 - 0,0 0 1.015,7
03:03 17,7 14,3 16,3 80,0 3,0 177 - 0,0 0 1.015,7
03:02 17,7 14,3 16,3 80,0 3,9 192 - 0,0 0 1.015,7
03:01 17,7 14,3 16,3 80,0 4,2 170 - 0,0 0 1.015,7
03:00 17,7 14,3 16,3 80,0 4,0 184 - 0,0 0 1.015,7
 
02:59 17,7 14,3 16,3 80,0 3,5 192 - 0,0 0 1.015,7
02:58 17,7 14,3 16,3 80,0 3,4 242 - 0,0 0 1.015,7
02:57 17,7 14,3 16,3 80,0 3,1 209 - 0,0 0 1.015,8
02:56 17,7 14,3 16,3 80,0 2,8 215 - 0,0 0 1.015,8
02:55 17,7 14,3 16,3 80,0 2,9 172 - 0,0 0 1.015,8
02:54 17,7 14,4 16,4 80,6 3,0 217 - 0,0 0 1.015,8
02:53 17,7 14,4 16,4 81,0 2,9 181 - 0,0 0 1.015,8
02:52 17,7 14,5 16,4 81,0 2,8 205 - 0,0 0 1.015,8
02:51 17,7 14,4 16,4 81,0 3,4 188 - 0,0 0 1.015,8
02:50 17,7 14,5 16,4 81,0 4,1 194 - 0,0 0 1.015,9
02:49 17,7 14,4 16,4 81,0 4,4 174 - 0,0 0 1.015,8
02:48 17,7 14,4 16,4 81,0 4,2 199 - 0,0 0 1.015,8
02:47 17,7 14,4 16,4 81,0 3,8 177 - 0,0 0 1.015,8
02:46 17,7 14,4 16,4 81,0 3,1 210 - 0,0 0 1.015,8
02:45 17,7 14,5 16,4 81,0 2,9 129 - 0,0 0 1.015,8
02:44 17,7 14,4 16,4 81,0 3,0 180 - 0,0 0 1.015,8
02:43 17,7 14,4 16,4 81,0 3,6 211 - 0,0 0 1.015,8
02:42 17,7 14,4 16,4 81,0 3,6 224 - 0,0 0 1.015,9
02:41 17,7 14,4 16,4 81,0 3,5 172 - 0,0 0 1.015,9
02:40 17,7 14,4 16,4 81,0 3,2 214 - 0,0 0 1.015,9
02:39 17,7 14,4 16,4 81,0 3,2 165 - 0,0 0 1.015,9
02:38 17,7 14,4 16,4 81,0 3,0 224 - 0,0 0 1.015,9
02:37 17,7 14,4 16,4 81,0 2,9 159 - 0,0 0 1.015,9
02:36 17,7 14,4 16,4 81,0 2,9 201 - 0,0 0 1.015,9
02:35 17,7 14,4 16,4 81,0 3,2 184 - 0,0 0 1.016,0
02:34 17,7 14,4 16,4 81,0 3,4 203 - 0,0 0 1.016,0
02:33 17,7 14,4 16,4 81,0 3,2 205 - 0,0 0 1.016,0
02:32 17,7 14,4 16,4 81,0 3,3 174 - 0,0 0 1.016,0
02:31 17,7 14,4 16,4 81,0 3,8 211 - 0,0 0 1.016,0
02:30 17,6 14,3 16,3 81,0 4,1 207 - 0,0 0 1.016,0
02:29 17,6 14,3 16,3 81,0 3,7 212 - 0,0 0 1.016,0
02:28 17,6 14,3 16,3 81,0 3,5 226 - 0,0 0 1.016,0
02:27 17,6 14,3 16,3 81,0 3,3 199 - 0,0 0 1.016,0
02:26 17,6 14,3 16,3 81,0 3,0 213 - 0,0 0 1.016,0
02:25 17,6 14,3 16,3 81,0 2,9 219 - 0,0 0 1.016,0
02:24 17,6 14,3 16,3 81,0 3,1 207 - 0,0 0 1.016,0
02:23 17,6 14,4 16,4 81,9 3,5 240 - 0,0 0 1.016,0
02:22 17,6 14,5 16,4 82,0 3,4 198 - 0,0 0 1.016,0
02:21 17,5 14,4 16,4 82,0 3,4 184 - 0,0 0 1.016,1
02:20 17,5 14,4 16,3 82,0 3,3 191 - 0,0 0 1.016,0
02:19 17,5 14,4 16,3 82,0 3,7 184 - 0,0 0 1.016,0
02:18 17,4 14,4 16,3 82,0 3,6 179 - 0,0 0 1.016,0
02:17 17,4 14,4 16,3 82,0 3,3 190 - 0,0 0 1.016,1
02:16 17,4 14,4 16,3 82,2 3,4 201 - 0,0 0 1.016,1
02:15 17,4 14,5 16,4 83,0 4,0 215 - 0,0 0 1.016,1
02:14 17,4 14,5 16,3 83,0 4,4 218 - 0,0 0 1.016,1
02:13 17,3 14,4 16,3 83,0 4,2 192 - 0,0 0 1.016,1
02:12 17,3 14,4 16,3 83,0 4,0 194 - 0,0 0 1.016,1
02:11 17,3 14,4 16,3 83,0 3,7 203 - 0,0 0 1.016,1
02:10 17,3 14,4 16,3 83,2 3,7 203 - 0,0 0 1.016,1
02:09 17,3 14,6 16,4 84,0 3,6 206 - 0,0 0 1.016,1
02:08 17,2 14,5 16,3 84,0 4,1 203 - 0,0 0 1.016,1
02:07 17,2 14,5 16,3 84,0 4,1 190 - 0,0 0 1.016,1
02:06 17,2 14,5 16,3 84,0 3,6 205 - 0,0 0 1.016,1
02:05 17,2 14,5 16,3 84,0 2,6 167 - 0,0 0 1.016,1
02:04 17,2 14,5 16,3 84,2 2,1 241 - 0,0 0 1.016,1
02:03 17,2 14,6 16,4 85,0 2,3 208 - 0,0 0 1.016,1
02:02 17,2 14,6 16,4 85,0 2,4 212 - 0,0 0 1.016,2
02:01 17,2 14,6 16,4 85,0 2,6 203 - 0,0 0 1.016,2
 
01:58 17,2 14,6 16,4 85,0 2,4 222 - 0,0 0 1.016,1
01:57 17,1 14,6 16,4 85,0 2,4 176 - 0,0 0 1.016,1
01:56 17,1 14,6 16,4 85,0 2,7 207 - 0,0 0 1.016,1
01:55 17,1 14,6 16,4 85,0 2,8 188 - 0,0 0 1.016,2
01:54 17,1 14,6 16,4 85,0 2,2 230 - 0,0 0 1.016,2
01:53 17,2 14,6 16,4 85,0 2,0 161 - 0,0 0 1.016,2
01:52 17,2 14,6 16,4 85,0 2,1 159 - 0,0 0 1.016,2
01:51 17,2 14,6 16,4 85,0 2,0 195 - 0,0 0 1.016,2
01:50 17,2 14,6 16,4 85,0 2,0 194 - 0,0 0 1.016,2
01:49 17,2 14,7 16,5 85,7 2,1 174 - 0,0 0 1.016,2
01:48 17,2 14,8 16,5 86,0 2,2 226 - 0,0 0 1.016,1
01:47 17,2 14,8 16,5 86,0 2,3 176 - 0,0 0 1.016,1
01:46 17,2 14,8 16,5 86,0 2,0 193 - 0,0 0 1.016,2
01:45 17,2 14,8 16,5 86,0 1,7 175 - 0,0 0 1.016,2
01:44 17,2 14,8 16,5 86,0 1,7 179 - 0,0 0 1.016,2
01:43 17,2 14,8 16,5 86,0 1,8 193 - 0,0 0 1.016,2
01:42 17,2 14,8 16,5 86,0 1,6 174 - 0,0 0 1.016,1
01:41 17,2 14,8 16,6 86,0 0,9 229 - 0,0 0 1.016,2
01:40 17,2 14,8 16,6 86,0 0,4 68 - 0,0 0 1.016,3
01:39 17,2 14,8 16,6 86,0 0,9 52 - 0,0 0 1.016,3
01:38 17,2 14,8 16,6 86,0 0,8 176 - 0,0 0 1.016,3
01:37 17,2 14,8 16,6 86,0 1,2 147 - 0,0 0 1.016,3
01:36 17,2 14,8 16,6 86,0 1,1 204 - 0,0 0 1.016,3
01:35 17,2 14,9 16,6 86,0 1,3 116 - 0,0 0 1.016,3
01:34 17,2 14,9 16,6 86,0 1,5 172 - 0,0 0 1.016,3
01:33 17,2 14,9 16,6 86,0 1,4 146 - 0,0 0 1.016,4
01:32 17,2 14,9 16,6 86,0 1,2 199 - 0,0 0 1.016,4
01:31 17,2 14,9 16,6 86,0 1,3 176 - 0,0 0 1.016,4
01:30 17,2 14,9 16,6 86,0 1,1 197 - 0,0 0 1.016,4
01:29 17,2 14,9 16,6 86,0 1,1 176 - 0,0 0 1.016,4
01:28 17,2 14,9 16,6 86,0 1,2 172 - 0,0 0 1.016,5
01:27 17,2 14,9 16,6 86,0 1,5 197 - 0,0 0 1.016,5
01:26 17,2 14,9 16,6 86,0 1,7 201 - 0,0 0 1.016,5
01:25 17,2 14,9 16,6 86,0 1,6 161 - 0,0 0 1.016,5
01:24 17,2 14,9 16,6 86,0 0,9 149 - 0,0 0 1.016,5
01:23 17,2 14,9 16,6 86,0 0,7 282 - 0,0 0 1.016,6
01:22 17,2 14,9 16,6 86,0 1,0 200 - 0,0 0 1.016,6
01:21 17,2 14,9 16,6 86,0 1,3 206 - 0,0 0 1.016,6
01:20 17,2 14,9 16,6 86,0 1,4 230 - 0,0 0 1.016,6
01:19 17,2 14,9 16,6 86,0 1,2 185 - 0,0 0 1.016,6
01:18 17,2 14,9 16,6 86,0 1,3 153 - 0,0 0 1.016,6
01:17 17,2 14,9 16,6 86,0 1,3 150 - 0,0 0 1.016,6
01:16 17,2 14,9 16,6 86,4 1,4 192 - 0,0 0 1.016,6
01:15 17,2 15,0 16,7 86,5 1,4 211 - 0,0 0 1.016,6
01:14 17,2 14,9 16,6 86,0 1,2 133 - 0,0 0 1.016,7
01:13 17,2 15,0 16,7 86,8 1,2 186 - 0,0 0 1.016,7
01:12 17,2 15,0 16,7 87,0 1,2 180 - 0,0 0 1.016,7
01:11 17,2 15,0 16,7 87,0 1,1 178 - 0,0 0 1.016,8
01:10 17,2 15,0 16,7 87,0 1,2 166 - 0,0 0 1.016,8
01:09 17,2 15,0 16,7 87,0 1,7 186 - 0,0 0 1.016,9
01:08 17,2 15,0 16,7 87,0 2,2 190 - 0,0 0 1.017,0
01:07 17,2 15,0 16,7 87,0 2,2 193 - 0,0 0 1.017,0
01:06 17,2 15,0 16,7 87,0 1,9 174 - 0,0 0 1.017,0
01:05 17,2 15,0 16,7 87,0 1,8 203 - 0,0 0 1.017,0
01:04 17,2 15,0 16,7 87,0 2,4 211 - 0,0 0 1.017,0
01:03 17,2 15,0 16,7 87,0 2,8 186 - 0,0 0 1.017,1
01:02 17,2 15,0 16,7 87,0 2,8 205 - 0,0 0 1.017,1
01:01 17,2 15,0 16,7 87,0 2,5 195 - 0,0 0 1.017,1
01:00 17,2 15,0 16,7 87,0 2,5 220 - 0,0 0 1.017,2
 
00:59 17,2 15,0 16,7 87,0 2,4 192 - 0,0 0 1.017,2
00:58 17,2 15,0 16,7 87,0 2,3 223 - 0,0 0 1.017,2
00:57 17,2 15,0 16,7 87,0 2,6 192 - 0,0 0 1.017,2
00:56 17,2 15,0 16,7 87,3 3,2 182 - 0,0 0 1.017,1
00:55 17,1 15,1 16,8 88,0 3,3 182 - 0,0 0 1.017,1
00:54 17,1 15,1 16,7 88,0 3,3 203 - 0,0 0 1.017,1
00:53 17,1 15,1 16,7 88,0 3,4 188 - 0,0 0 1.017,1
00:52 17,1 15,1 16,7 88,0 3,5 188 - 0,0 0 1.017,1
00:51 17,1 15,1 16,7 88,0 3,7 194 - 0,0 0 1.017,2
00:50 17,0 15,0 16,7 88,0 3,9 192 - 0,0 0 1.017,1
00:49 17,0 15,0 16,6 88,0 4,3 195 - 0,0 0 1.017,1
00:48 17,0 15,0 16,6 88,0 4,6 202 - 0,0 0 1.017,2
00:47 17,0 15,0 16,6 88,0 4,0 205 - 0,0 0 1.017,2
00:46 17,0 15,0 16,6 88,0 3,6 132 - 0,0 0 1.017,2
00:45 17,0 15,0 16,6 88,0 3,4 184 - 0,0 0 1.017,3
00:44 17,0 15,0 16,6 88,0 3,2 200 - 0,0 0 1.017,3
00:43 17,0 15,0 16,6 88,0 2,5 203 - 0,0 0 1.017,3
00:42 17,0 15,0 16,6 88,0 1,8 184 - 0,0 0 1.017,3
00:41 17,0 14,9 16,6 88,0 1,3 211 - 0,0 0 1.017,3
00:40 17,0 15,0 16,6 88,0 0,8 205 - 0,0 0 1.017,3
00:39 17,0 15,0 16,6 88,0 0,4 105 - 0,0 0 1.017,3
00:38 17,0 14,9 16,6 88,0 0,3 251 - 0,0 0 1.017,3
00:37 17,0 15,0 16,6 88,0 0,3 207 - 0,0 0 1.017,3
00:36 17,0 15,0 16,6 88,0 0,5 86 - 0,0 0 1.017,2
00:35 17,0 15,0 16,6 88,0 0,5 80 - 0,0 0 1.017,2
00:34 17,0 14,9 16,6 88,0 0,5 213 - 0,0 0 1.017,2
00:33 17,0 14,9 16,6 88,0 0,6 157 - 0,0 0 1.017,2
00:32 17,0 15,0 16,6 88,0 0,6 114 - 0,0 0 1.017,3
00:31 17,0 15,0 16,6 88,0 0,7 109 - 0,0 0 1.017,3
00:30 17,0 15,0 16,6 88,0 0,7 153 - 0,0 0 1.017,4
00:29 17,0 15,0 16,6 88,0 0,8 103 - 0,0 0 1.017,3
00:28 17,0 15,0 16,6 88,0 0,8 142 - 0,0 0 1.017,3
00:27 17,0 15,0 16,6 88,0 0,8 188 - 0,0 0 1.017,4
00:26 17,0 15,0 16,6 88,0 0,8 144 - 0,0 0 1.017,4
00:25 17,0 15,0 16,6 87,9 1,1 138 - 0,0 0 1.017,4
00:24 17,0 14,8 16,5 87,0 1,1 148 - 0,0 0 1.017,4
00:23 17,0 14,8 16,5 87,0 1,0 168 - 0,0 0 1.017,4
00:22 17,0 14,8 16,5 87,0 0,9 99 - 0,0 0 1.017,5
00:21 17,0 14,8 16,5 87,0 0,9 140 - 0,0 0 1.017,5
00:20 17,0 14,8 16,5 87,0 0,8 149 - 0,0 0 1.017,5
00:19 17,0 14,8 16,5 87,0 0,9 124 - 0,0 0 1.017,5
00:18 17,0 14,8 16,5 87,0 1,0 95 - 0,0 0 1.017,5
00:17 17,0 14,8 16,5 87,0 1,0 147 - 0,0 0 1.017,6
00:16 17,0 14,9 16,5 87,0 0,9 126 - 0,0 0 1.017,6
00:15 17,0 14,8 16,5 87,0 1,0 143 - 0,0 0 1.017,5
00:14 17,1 14,9 16,5 87,0 1,1 154 - 0,0 0 1.017,6
00:13 17,0 14,9 16,5 87,0 1,0 136 - 0,0 0 1.017,7
00:12 17,0 14,9 16,5 87,0 0,7 120 - 0,0 0 1.017,7
00:11 17,0 14,9 16,5 87,0 0,6 216 - 0,0 0 1.017,6
00:10 17,1 14,9 16,5 87,0 0,6 153 - 0,0 0 1.017,7
00:09 17,1 14,9 16,5 87,0 0,7 107 - 0,0 0 1.017,7
00:08 17,1 14,9 16,6 87,0 0,8 111 - 0,0 0 1.017,6
00:07 17,1 14,9 16,6 87,0 0,8 103 - 0,0 0 1.017,6
00:06 17,1 14,9 16,6 87,0 0,7 157 - 0,0 0 1.017,7
00:05 17,1 14,9 16,6 87,0 0,6 224 - 0,0 0 1.017,7
00:04 17,1 14,9 16,6 87,0 0,4 124 - 0,0 0 1.017,7
00:03 17,1 14,9 16,6 87,0 0,6 117 - 0,0 0 1.017,7
00:02 17,1 14,9 16,6 87,0 0,6 155 - 0,0 0 1.017,7
00:01 17,1 14,9 16,6 87,0 0,7 152 - 0,0 0 1.017,7
00:00 17,1 14,9 16,6 87,0 0,8 165 - 0,4 0 1.017,7
 
23:59 17,1 14,9 16,6 87,0 0,9 147 - 0,4 0 1.017,7
23:58 17,1 15,0 16,6 87,0 0,8 141 - 0,4 0 1.017,7
23:57 17,2 15,0 16,7 87,0 0,7 79 - 0,4 0 1.017,7
23:56 17,1 15,0 16,6 87,0 0,7 163 - 0,4 0 1.017,7
23:55 17,2 15,0 16,7 87,0 0,7 134 - 0,4 0 1.017,7
23:54 17,2 15,0 16,7 87,0 0,8 197 - 0,4 0 1.017,7
23:53 17,2 15,0 16,7 87,0 0,7 170 - 0,4 0 1.017,7
23:52 17,2 15,0 16,7 87,0 0,6 78 - 0,4 0 1.017,8
23:51 17,2 14,8 16,6 86,2 0,5 109 - 0,4 0 1.017,8
23:50 17,2 14,8 16,6 86,0 0,3 168 - 0,4 0 1.017,8
23:49 17,2 14,8 16,5 86,0 0,4 169 - 0,4 0 1.017,8
23:48 17,2 14,9 16,6 86,0 0,4 198 - 0,4 0 1.017,8
23:47 17,2 14,9 16,6 86,0 0,5 86 - 0,4 0 1.017,8
23:46 17,2 14,9 16,6 86,0 0,7 174 - 0,4 0 1.017,8
23:45 17,2 14,9 16,6 86,0 1,0 163 - 0,4 0 1.017,8
23:44 17,2 14,9 16,6 86,0 0,9 150 - 0,4 0 1.017,8
23:43 17,2 14,9 16,6 86,0 0,8 205 - 0,4 0 1.017,8
23:42 17,2 14,9 16,6 86,0 1,2 182 - 0,4 0 1.017,8
23:41 17,3 14,9 16,6 86,0 1,5 193 - 0,4 0 1.017,8
23:40 17,3 14,9 16,6 86,0 1,4 195 - 0,4 0 1.017,9
23:39 17,3 14,9 16,6 86,0 1,1 169 - 0,4 0 1.017,9
23:38 17,3 14,9 16,6 86,0 1,0 162 - 0,4 0 1.017,9
23:37 17,3 14,9 16,6 86,0 1,1 197 - 0,4 0 1.018,0
23:36 17,3 14,9 16,6 86,0 1,3 188 - 0,4 0 1.018,0
23:35 17,3 14,9 16,7 86,0 1,7 178 - 0,4 0 1.018,0
23:34 17,3 14,9 16,6 86,0 1,9 200 - 0,4 0 1.018,1
23:33 17,3 14,9 16,7 86,0 1,7 207 - 0,4 0 1.018,1
23:32 17,3 14,9 16,6 86,0 1,9 180 - 0,4 0 1.018,1
23:31 17,3 14,9 16,7 86,0 2,3 213 - 0,4 0 1.018,1
23:30 17,3 14,9 16,7 86,0 2,5 186 - 0,4 0 1.018,1
23:29 17,3 14,9 16,7 86,0 2,6 170 - 0,2 0 1.018,1
23:28 17,3 14,9 16,7 86,0 2,4 206 - 0,2 0 1.018,2
23:27 17,3 15,0 16,7 86,0 1,9 131 - 0,2 0 1.018,1
23:26 17,3 15,0 16,7 86,0 1,6 209 - 0,2 0 1.018,1
23:25 17,3 15,0 16,7 86,0 2,1 184 - 0,2 0 1.018,1
23:24 17,3 15,0 16,7 86,0 2,6 194 - 0,2 0 1.018,2
23:23 17,3 15,0 16,7 86,0 2,1 150 - 0,2 0 1.018,1
23:22 17,3 15,0 16,7 86,0 1,8 245 - 0,2 0 1.018,2
23:21 17,3 15,0 16,7 86,0 2,2 181 - 0,2 0 1.018,2
23:20 17,3 15,0 16,7 86,0 2,7 187 - 0,2 0 1.018,2
23:19 17,3 15,0 16,7 86,0 2,7 203 - 0,2 0 1.018,2
23:18 17,3 15,0 16,7 86,0 2,4 189 - 0,2 0 1.018,1
23:17 17,4 15,0 16,7 86,0 2,1 226 - 0,2 0 1.018,0
23:16 17,4 15,0 16,7 86,0 1,8 204 - 0,2 0 1.018,0
23:15 17,4 15,0 16,8 86,0 1,8 196 - 0,2 0 1.018,0
23:14 17,4 15,0 16,8 86,0 1,9 197 - 0,2 0 1.018,0
23:13 17,4 15,0 16,7 85,7 1,9 199 - 0,2 0 1.018,0
23:12 17,4 14,9 16,7 85,5 1,5 203 - 0,2 0 1.018,0
23:11 17,4 15,0 16,7 85,4 1,4 122 - 0,2 0 1.018,0
23:10 17,4 14,9 16,7 85,0 1,3 166 - 0,2 0 1.018,0
23:09 17,4 14,9 16,7 85,0 1,7 221 - 0,2 0 1.018,0
23:08 17,4 14,9 16,7 85,0 1,6 157 - 0,2 0 1.017,9
23:07 17,4 14,9 16,7 85,0 1,3 201 - 0,2 0 1.018,0
23:06 17,4 14,9 16,7 85,0 1,4 215 - 0,2 0 1.018,0
23:05 17,4 14,9 16,7 85,0 1,5 171 - 0,2 0 1.018,0
23:04 17,4 14,9 16,7 85,0 1,4 207 - 0,2 0 1.018,0
23:03 17,4 14,9 16,7 85,0 1,2 178 - 0,2 0 1.018,0
23:02 17,5 14,9 16,7 85,0 1,4 162 - 0,2 0 1.018,0
23:01 17,5 14,9 16,7 85,0 1,3 190 - 0,2 0 1.018,0
23:00 17,4 14,9 16,7 85,0 1,5 271 - 0,2 0 1.018,0
 
22:59 17,5 14,9 16,7 85,0 1,3 187 - 0,2 0 1.018,0
22:58 17,5 14,9 16,7 85,0 1,6 185 - 0,2 0 1.018,0
22:57 17,5 15,0 16,7 85,0 1,7 213 - 0,2 0 1.018,0
22:56 17,5 15,0 16,7 85,0 1,9 227 - 0,2 0 1.018,0
22:55 17,5 15,0 16,7 85,0 1,7 209 - 0,2 0 1.018,0
22:54 17,5 15,0 16,7 85,0 1,6 189 - 0,2 0 1.018,0
22:53 17,5 15,0 16,8 85,0 1,6 172 - 0,2 0 1.018,0
22:52 17,5 15,0 16,8 85,0 1,6 166 - 0,2 0 1.018,0
22:51 17,5 15,0 16,8 85,0 1,4 130 - 0,2 0 1.018,0
22:50 17,5 15,0 16,8 85,0 1,1 181 - 0,2 0 1.018,0
22:49 17,6 14,9 16,7 84,6 0,7 183 - 0,2 0 1.018,0
22:48 17,6 14,8 16,7 84,0 0,6 285 - 0,2 0 1.018,0
22:47 17,6 14,8 16,7 84,0 0,5 170 - 0,2 0 1.018,0
22:46 17,6 14,8 16,7 84,0 0,9 105 - 0,2 0 1.018,0
22:45 17,6 14,9 16,7 84,0 0,9 146 - 0,2 0 1.018,0
22:44 17,6 14,9 16,7 84,0 0,9 128 - 0,2 0 1.018,0
22:43 17,6 14,9 16,7 84,0 0,7 184 - 0,2 0 1.018,0
22:42 17,6 14,9 16,7 84,0 0,6 137 - 0,2 0 1.018,1
22:41 17,6 14,9 16,7 84,0 0,8 76 - 0,2 0 1.018,1
22:40 17,6 14,9 16,7 84,0 0,6 57 - 0,2 0 1.018,1
22:39 17,6 14,9 16,8 84,0 0,6 173 - 0,2 0 1.018,1
22:38 17,7 14,9 16,8 84,0 0,9 182 - 0,2 0 1.018,1
22:37 17,7 14,9 16,8 84,0 0,8 106 - 0,2 0 1.018,2
22:36 17,7 14,9 16,8 84,0 0,7 80 - 0,2 0 1.018,1
22:35 17,7 14,9 16,8 84,0 0,5 172 - 0,2 0 1.018,2
22:34 17,7 14,8 16,7 83,1 0,8 207 - 0,2 0 1.018,2
22:33 17,7 14,8 16,7 83,0 0,8 164 - 0,2 0 1.018,1
22:32 17,7 14,8 16,7 83,0 1,0 115 - 0,2 0 1.018,1
22:31 17,7 14,8 16,7 83,0 1,0 116 - 0,2 0 1.018,1
22:30 17,7 14,8 16,7 83,0 1,0 148 - 0,2 0 1.018,2
22:29 17,7 14,8 16,7 83,0 1,1 176 - 0,2 0 1.018,1
22:28 17,7 14,8 16,7 83,0 1,1 170 - 0,2 0 1.018,2
22:27 17,7 14,8 16,7 83,0 1,1 121 - 0,2 0 1.018,1
22:26 17,8 14,8 16,7 82,6 1,0 186 - 0,2 0 1.018,2
22:25 17,8 14,7 16,6 82,0 1,0 137 - 0,2 0 1.018,2
22:24 17,8 14,7 16,6 82,0 1,1 128 - 0,2 0 1.018,3
22:23 17,8 14,7 16,6 82,0 1,0 132 - 0,2 0 1.018,3
22:22 17,8 14,7 16,6 82,0 0,9 84 - 0,2 0 1.018,3
22:21 17,8 14,7 16,7 82,0 1,2 157 - 0,2 0 1.018,3
22:20 17,8 14,7 16,7 82,0 1,4 135 - 0,2 0 1.018,3
22:19 17,8 14,7 16,6 82,0 1,2 173 - 0,2 0 1.018,3
22:18 17,8 14,7 16,7 82,0 0,7 126 - 0,0 0 1.018,4
22:17 17,8 14,7 16,7 82,0 0,3 262 - 0,0 0 1.018,4
22:16 17,8 14,7 16,7 81,9 0,3 97 - 0,0 0 1.018,4
22:15 17,8 14,6 16,5 81,0 0,5 190 - 0,0 0 1.018,4
22:14 17,8 14,6 16,5 81,0 0,5 109 - 0,0 0 1.018,4
22:13 17,8 14,6 16,5 81,0 0,5 172 - 0,0 0 1.018,4
22:12 17,8 14,6 16,5 81,0 0,5 162 - 0,0 0 1.018,4
22:11 17,8 14,6 16,5 81,0 0,5 186 - 0,0 0 1.018,4
22:10 17,9 14,6 16,6 81,0 0,5 157 - 0,0 0 1.018,4
22:09 17,9 14,6 16,6 81,0 0,7 135 - 0,0 0 1.018,4
22:08 17,9 14,6 16,6 81,0 0,9 187 - 0,0 0 1.018,4
22:07 17,9 14,6 16,6 81,0 0,9 184 - 0,0 0 1.018,4
22:06 17,9 14,6 16,6 81,0 0,7 151 - 0,0 0 1.018,4
22:05 17,9 14,6 16,6 81,0 0,2 205 - 0,0 0 1.018,4
22:04 17,9 14,6 16,6 81,0 0,3 28 - 0,0 0 1.018,4
22:03 17,9 14,7 16,6 81,0 0,4 141 - 0,0 0 1.018,4
22:02 17,9 14,7 16,6 81,0 0,7 157 - 0,0 0 1.018,4
22:01 17,9 14,7 16,6 81,0 0,8 132 - 0,0 0 1.018,5
22:00 17,9 14,7 16,6 81,0 1,0 167 - 0,0 0 1.018,5
 
21:59 17,9 14,7 16,6 81,0 1,0 176 - 0,0 0 1.018,5
21:58 17,9 14,7 16,6 81,0 0,7 190 - 0,0 0 1.018,5
21:57 17,9 14,7 16,6 81,0 0,6 94 - 0,0 0 1.018,5
21:56 17,9 14,7 16,6 81,0 0,7 181 - 0,0 0 1.018,5
21:55 17,9 14,5 16,6 80,4 1,0 220 - 0,0 0 1.018,5
21:54 17,9 14,5 16,5 80,0 1,0 211 - 0,0 0 1.018,5
21:53 17,9 14,5 16,5 80,0 0,8 199 - 0,0 0 1.018,5
21:52 17,9 14,5 16,5 80,0 0,6 209 - 0,0 0 1.018,5
21:51 17,9 14,5 16,5 80,0 0,6 135 - 0,0 0 1.018,5
21:50 17,9 14,4 16,5 80,0 0,9 157 - 0,0 0 1.018,5
21:49 17,9 14,4 16,5 80,0 1,5 205 - 0,0 0 1.018,5
21:48 17,9 14,4 16,5 80,0 1,8 173 - 0,0 0 1.018,6
21:47 17,9 14,4 16,4 80,0 1,8 192 - 0,0 0 1.018,6
21:46 17,9 14,4 16,4 80,0 2,1 202 - 0,0 0 1.018,6
21:45 17,9 14,4 16,4 80,0 2,4 192 - 0,0 0 1.018,6
21:44 17,9 14,4 16,5 80,0 2,5 201 - 0,0 0 1.018,6
21:43 17,9 14,4 16,4 80,0 2,4 198 - 0,0 0 1.018,7
21:42 17,9 14,4 16,5 80,0 2,2 217 - 0,0 0 1.018,7
21:41 17,9 14,4 16,5 80,0 2,1 211 - 0,0 0 1.018,7
21:40 17,9 14,4 16,5 80,0 1,9 207 - 0,0 0 1.018,6
21:39 17,9 14,4 16,5 80,0 2,0 204 - 0,0 0 1.018,6
21:38 17,9 14,5 16,5 80,0 2,0 204 - 0,0 0 1.018,6
21:37 17,9 14,4 16,5 80,0 2,1 201 - 0,0 0 1.018,7
21:36 17,9 14,5 16,5 80,0 2,2 209 - 0,0 0 1.018,6
21:35 17,9 14,5 16,5 80,0 2,2 215 - 0,0 0 1.018,6
21:34 17,9 14,5 16,5 80,0 2,2 184 - 0,0 0 1.018,6
21:33 17,9 14,4 16,4 79,6 2,3 234 - 0,0 0 1.018,6
21:32 18,0 14,3 16,4 79,0 2,4 217 - 0,0 0 1.018,6
21:31 18,0 14,3 16,4 79,0 2,4 218 - 0,0 0 1.018,5
21:30 18,0 14,3 16,4 79,0 2,8 244 - 0,0 0 1.018,5
21:29 17,9 14,3 16,4 79,0 3,2 260 - 0,0 0 1.018,5
21:28 18,0 14,3 16,4 79,0 3,5 227 - 0,0 0 1.018,6
21:27 18,0 14,4 16,4 79,0 3,6 228 - 0,0 0 1.018,6
21:26 18,0 14,4 16,4 79,0 3,4 206 - 0,0 0 1.018,6
21:25 18,1 14,4 16,5 79,0 3,7 254 - 0,0 0 1.018,6
21:24 18,0 14,2 16,3 78,1 4,3 240 - 0,0 0 1.018,6
21:23 18,0 14,1 16,3 77,8 4,6 258 - 0,0 0 1.018,6
21:22 18,0 13,9 16,1 77,0 4,3 233 - 0,0 0 1.018,6
21:21 17,9 14,0 16,1 77,5 4,5 176 - 0,0 0 1.018,5
21:20 17,9 14,1 16,2 78,0 4,2 236 - 0,0 0 1.018,6
21:19 17,9 14,0 16,2 78,0 4,2 250 - 0,0 0 1.018,6
21:18 17,8 14,0 16,1 78,0 4,0 247 - 0,0 0 1.018,7
21:17 17,8 13,9 16,0 77,8 4,1 244 - 0,0 0 1.018,7
21:16 17,7 13,7 15,9 77,4 4,6 247 - 0,0 0 1.018,7
21:15 17,7 13,8 16,0 78,0 4,9 230 - 0,0 0 1.018,7
21:14 17,7 13,8 16,0 78,0 5,4 229 - 0,0 0 1.018,7
21:13 17,7 14,0 16,1 78,9 6,4 232 - 0,0 0 1.018,8
21:11 17,7 14,1 16,1 79,4 8,3 248 - 0,0 0 1.018,7
21:10 17,7 14,5 16,4 81,6 9,7 243 - 0,0 0 1.018,7
21:09 17,6 14,5 16,5 82,0 10,5 233 - 0,0 0 1.018,7
21:08 17,7 14,6 16,5 82,0 10,8 255 13,9 0,0 0 1.018,6
21:07 17,7 14,6 16,6 82,0 11,2 230 - 0,0 0 1.018,6
21:06 17,8 14,7 16,6 82,0 11,5 240 - 0,0 0 1.018,6
21:05 18,0 14,9 16,8 82,0 11,1 232 - 0,0 0 1.018,6
21:04 18,2 15,0 16,9 81,6 10,7 195 - 0,0 0 1.018,6
21:03 18,3 14,9 16,9 80,5 10,3 169 13,9 0,0 0 1.018,7
21:02 18,6 15,0 17,0 79,4 9,8 237 13,4 0,0 0 1.018,7
21:01 18,8 14,8 17,0 77,4 8,8 213 - 0,0 0 1.018,9
21:00 18,8 14,8 17,0 77,0 5,9 265 12,5 0,0 0 1.018,9
 
20:59 18,8 14,8 17,0 77,0 3,5 213 - 0,0 0 1.018,9
20:58 18,8 14,8 17,0 77,0 3,1 186 - 0,0 0 1.018,8
20:57 18,8 14,8 17,0 77,0 2,7 197 - 0,0 0 1.018,8
20:56 18,9 14,8 17,0 77,0 2,4 207 - 0,0 0 1.018,8
20:55 18,9 14,8 17,0 77,0 2,1 189 - 0,0 0 1.018,8
20:54 18,9 14,8 17,0 77,0 2,0 206 - 0,0 0 1.018,8
20:53 18,9 14,8 17,0 77,0 2,5 195 - 0,0 0 1.018,8
20:52 18,9 14,7 17,0 76,6 2,8 190 - 0,0 0 1.018,8
20:51 18,9 14,6 16,9 76,0 2,8 157 - 0,0 0 1.018,8
20:50 18,9 14,6 16,9 76,0 2,6 195 - 0,0 0 1.018,8
20:49 18,9 14,6 16,9 76,0 2,2 188 - 0,0 0 1.018,8
20:48 18,9 14,7 16,9 76,0 1,9 253 - 0,0 0 1.018,8
20:47 18,9 14,7 16,9 76,0 2,1 203 - 0,0 0 1.018,8
20:46 18,9 14,7 16,9 76,0 1,8 211 - 0,0 0 1.018,8
20:45 18,9 14,7 16,9 76,0 1,3 126 - 0,0 0 1.018,8
20:44 18,9 14,7 16,9 76,0 1,0 230 - 0,0 0 1.018,8
20:43 18,9 14,7 16,9 76,0 1,3 200 - 0,0 0 1.018,8
20:42 18,9 14,7 16,9 76,0 1,5 195 - 0,0 0 1.018,7
20:41 18,9 14,7 16,9 76,0 1,7 188 - 0,0 0 1.018,7
20:40 18,9 14,7 16,9 76,0 1,7 206 - 0,0 0 1.018,7
20:39 18,9 14,7 16,9 76,0 1,9 172 - 0,0 0 1.018,7
20:38 18,9 14,7 16,9 76,0 2,1 195 - 0,0 0 1.018,7
20:37 18,9 14,7 16,9 76,0 2,5 195 - 0,0 0 1.018,8
20:36 18,9 14,7 16,9 76,0 2,6 201 - 0,0 0 1.018,8
20:35 18,9 14,7 16,9 76,0 2,5 194 - 0,0 0 1.018,7
20:34 19,0 14,7 16,9 76,0 2,2 217 - 0,0 0 1.018,7
20:33 18,9 14,7 16,9 76,0 2,0 182 - 0,0 0 1.018,7
20:32 19,0 14,7 16,9 76,0 2,0 192 - 0,0 0 1.018,7
20:31 19,0 14,7 16,9 76,0 2,1 239 - 0,0 0 1.018,7
20:30 19,0 14,7 17,0 76,0 2,0 215 - 0,0 0 1.018,7
20:29 19,0 14,7 17,0 76,0 1,8 198 - 0,0 0 1.018,7
20:28 19,0 14,7 17,0 76,0 1,8 189 - 0,0 0 1.018,7
20:27 19,0 14,7 17,0 76,0 1,9 201 - 0,0 0 1.018,7
20:26 19,0 14,7 17,0 76,0 1,8 177 - 0,0 0 1.018,7
20:25 19,0 14,7 17,0 76,0 1,6 178 - 0,0 0 1.018,7
20:24 19,0 14,8 17,0 76,0 1,4 228 - 0,0 0 1.018,7
20:23 19,0 14,8 17,0 76,0 1,5 184 - 0,0 0 1.018,7
20:22 19,0 14,8 17,0 76,0 1,8 178 - 0,0 0 1.018,7
20:21 19,0 14,8 17,0 76,0 2,1 186 - 0,0 0 1.018,7
20:20 19,1 14,8 17,0 76,0 2,3 188 - 0,0 0 1.018,7
20:19 19,1 14,8 17,0 76,0 2,3 207 - 0,0 0 1.018,7
20:18 19,1 14,8 17,1 76,0 2,1 202 - 0,0 0 1.018,7
20:17 19,1 14,8 17,1 76,0 2,0 205 - 0,0 0 1.018,7
20:16 19,1 14,8 17,1 76,0 2,1 226 - 0,0 0 1.018,7
20:15 19,1 14,8 17,1 76,0 2,1 199 - 0,0 0 1.018,6
20:14 19,1 14,8 17,1 76,0 2,3 191 - 0,0 0 1.018,6
20:13 19,1 14,8 17,1 76,0 2,4 203 - 0,0 0 1.018,6
20:12 19,1 14,8 17,1 76,0 2,2 213 - 0,0 0 1.018,6
20:11 19,1 14,8 17,1 76,0 1,9 210 - 0,0 0 1.018,6
20:10 19,1 14,8 17,1 76,0 2,3 185 - 0,0 0 1.018,6
20:09 19,1 14,8 17,1 76,0 2,9 199 - 0,0 0 1.018,6
20:08 19,1 14,8 17,1 76,0 2,9 204 - 0,0 0 1.018,7
20:07 19,1 14,8 17,1 76,0 2,4 194 - 0,0 0 1.018,7
20:06 19,1 14,9 17,1 76,0 1,9 207 - 0,0 0 1.018,7
20:05 19,1 14,8 17,1 76,0 1,8 191 - 0,0 0 1.018,7
20:04 19,1 14,8 17,1 76,0 1,8 192 - 0,0 0 1.018,7
20:03 19,1 14,8 17,1 76,0 2,1 206 - 0,0 0 1.018,7
20:02 19,1 14,8 17,1 76,0 2,3 224 - 0,0 0 1.018,7
20:01 19,1 14,7 17,0 75,0 2,8 211 - 0,0 0 1.018,7
20:00 19,1 14,6 16,9 75,0 3,1 212 - 0,0 3 1.018,7
 
19:59 19,1 14,7 17,0 75,0 2,8 208 - 0,0 5 1.018,7
19:58 19,2 14,7 17,0 75,0 2,4 167 - 0,0 5 1.018,7
19:57 19,1 14,7 17,0 75,0 2,3 219 - 0,0 5 1.018,7
19:56 19,1 14,7 17,0 75,0 2,5 190 - 0,0 6 1.018,7
19:55 19,1 14,6 16,9 75,0 2,7 193 - 0,0 7 1.018,7
19:54 19,2 14,7 17,0 75,0 3,1 195 - 0,0 9 1.018,7
19:53 19,2 14,7 17,0 75,0 3,1 184 - 0,0 11 1.018,7
19:52 19,2 14,7 17,0 75,0 3,0 206 - 0,0 12 1.018,7
19:51 19,2 14,7 17,0 75,0 3,2 219 - 0,0 15 1.018,7
19:50 19,2 14,7 17,0 75,0 3,5 217 - 0,0 17 1.018,7
19:49 19,2 14,7 17,0 75,0 3,3 209 - 0,0 19 1.018,7
19:48 19,2 14,7 17,0 75,0 3,1 191 - 0,0 20 1.018,7
19:47 19,2 14,8 17,1 75,5 3,3 211 - 0,0 21 1.018,7
19:46 19,2 14,9 17,1 76,0 3,4 218 - 0,0 23 1.018,7
19:45 19,2 14,9 17,1 76,0 3,1 197 - 0,0 23 1.018,7
19:44 19,2 14,9 17,1 76,0 2,7 213 - 0,0 24 1.018,7
19:43 19,2 14,9 17,2 76,0 2,5 202 - 0,0 25 1.018,7
19:42 19,2 14,9 17,1 76,0 2,8 226 - 0,0 24 1.018,7
19:41 19,2 14,9 17,2 76,0 3,1 205 - 0,0 23 1.018,7
19:40 19,2 14,9 17,2 76,0 3,3 221 - 0,0 21 1.018,7
19:39 19,2 14,9 17,2 76,0 3,2 207 - 0,0 19 1.018,7
19:38 19,2 15,0 17,2 76,0 3,1 204 - 0,0 19 1.018,7
19:37 19,2 15,0 17,2 76,0 3,2 212 - 0,0 19 1.018,7
19:36 19,2 15,0 17,2 76,0 3,3 224 - 0,0 19 1.018,7
19:35 19,3 15,0 17,2 76,0 3,5 208 - 0,0 21 1.018,7
19:34 19,3 15,0 17,2 76,0 3,7 210 - 0,0 19 1.018,7
19:33 19,3 15,0 17,3 76,0 3,5 204 - 0,0 19 1.018,7
19:32 19,3 15,2 17,4 76,8 2,9 201 - 0,0 19 1.018,7
19:31 19,3 15,0 17,3 76,0 2,8 211 - 0,0 19 1.018,8
19:30 19,3 15,0 17,3 76,0 2,8 207 - 0,0 19 1.018,8
19:29 19,3 15,1 17,3 76,0 2,9 224 - 0,0 19 1.018,8
19:28 19,4 15,1 17,4 76,0 2,7 198 - 0,0 23 1.018,8
19:27 19,4 15,1 17,4 76,0 2,8 235 - 0,0 24 1.018,8
19:26 19,4 15,2 17,4 76,0 3,1 222 - 0,0 26 1.018,8
19:25 19,4 15,2 17,4 76,0 3,4 223 - 0,0 29 1.018,8
19:24 19,4 15,2 17,4 76,0 3,5 200 - 0,0 30 1.018,8
19:23 19,4 15,2 17,4 76,0 3,4 203 - 0,0 32 1.018,8
19:22 19,4 15,2 17,4 76,0 3,4 203 - 0,0 32 1.018,8
19:21 19,4 15,2 17,4 76,0 3,6 211 - 0,0 32 1.018,8
19:20 19,4 15,1 17,4 76,0 3,8 219 - 0,0 32 1.018,8
19:19 19,4 15,2 17,4 76,0 4,0 211 - 0,0 32 1.018,7
19:18 19,5 15,2 17,4 76,0 3,8 223 - 0,0 32 1.018,8
19:17 19,5 15,2 17,4 76,0 3,4 228 - 0,0 33 1.018,8
19:16 19,5 15,2 17,4 76,0 3,1 211 - 0,0 34 1.018,8
19:15 19,5 15,2 17,4 76,0 3,5 224 - 0,0 35 1.018,8
19:14 19,5 15,2 17,5 76,0 3,7 213 - 0,0 36 1.018,8
19:13 19,5 15,2 17,5 76,0 3,6 218 - 0,0 37 1.018,8
19:12 19,5 15,2 17,5 76,0 3,1 214 - 0,0 37 1.018,8
19:11 19,5 15,2 17,5 76,0 3,1 226 - 0,0 37 1.018,8
19:10 19,5 15,2 17,5 76,0 3,6 235 - 0,0 35 1.018,8
19:09 19,5 15,2 17,5 76,0 4,0 229 - 0,0 34 1.018,8
19:08 19,5 15,2 17,5 76,0 3,9 232 - 0,0 33 1.018,8
19:07 19,5 15,2 17,5 76,0 3,8 221 - 0,0 33 1.018,8
19:06 19,5 15,3 17,5 76,0 4,0 212 - 0,0 32 1.018,8
19:05 19,5 15,3 17,5 76,0 4,1 206 - 0,0 32 1.018,8
19:04 19,6 15,3 17,5 76,0 3,9 184 - 0,0 30 1.018,8
19:03 19,5 15,3 17,5 76,0 3,9 235 - 0,0 30 1.018,8
19:02 19,6 15,3 17,5 76,0 4,3 238 - 0,0 30 1.018,8
19:01 19,6 15,3 17,5 76,0 3,4 269 - 0,0 30 1.018,8
19:00 19,6 15,3 17,5 76,0 3,5 163 - 0,0 30 1.018,8
 
18:59 19,6 15,3 17,5 76,0 4,3 225 - 0,0 33 1.018,7
18:58 19,5 15,3 17,5 76,0 4,5 215 - 0,0 37 1.018,8
18:57 19,5 15,3 17,5 76,0 4,6 261 - 0,0 38 1.018,7
18:56 19,6 15,3 17,5 76,0 5,0 233 - 0,0 42 1.018,7
18:55 19,5 15,3 17,5 76,0 5,2 240 - 0,0 46 1.018,7
18:54 19,6 15,4 17,6 76,6 5,3 236 - 0,0 49 1.018,7
18:53 19,6 15,5 17,7 77,0 5,3 215 - 0,0 51 1.018,7
18:52 19,6 15,5 17,7 77,0 5,1 217 - 0,0 53 1.018,7
18:51 19,6 15,5 17,7 77,0 4,9 219 - 0,0 54 1.018,7
18:50 19,6 15,5 17,7 77,0 4,9 215 - 0,0 55 1.018,7
18:49 19,6 15,5 17,7 77,0 4,9 219 - 0,0 58 1.018,7
18:48 19,5 15,5 17,7 77,0 4,7 219 - 0,0 60 1.018,7
18:47 19,5 15,5 17,7 77,0 4,3 213 - 0,0 60 1.018,8
18:46 19,5 15,4 17,6 77,0 4,4 203 - 0,0 62 1.018,8
18:45 19,5 15,4 17,6 77,0 4,9 202 - 0,0 62 1.018,7
18:44 19,5 15,4 17,6 77,0 4,9 213 - 0,0 59 1.018,7
18:43 19,5 15,4 17,6 77,0 4,7 246 - 0,0 56 1.018,7
18:42 19,5 15,4 17,6 77,0 4,7 224 - 0,0 54 1.018,7
18:41 19,5 15,4 17,7 77,0 4,7 213 - 0,0 51 1.018,8
18:40 19,5 15,4 17,6 77,0 4,6 234 - 0,0 49 1.018,8
18:39 19,5 15,5 17,7 77,0 4,6 194 - 0,0 50 1.018,8
18:38 19,6 15,5 17,7 77,0 4,7 219 - 0,0 54 1.018,8
18:37 19,6 15,5 17,7 77,0 4,3 217 - 0,0 56 1.018,8
18:36 19,6 15,5 17,7 77,0 4,2 219 - 0,0 56 1.018,8
18:35 19,6 15,5 17,7 77,0 4,0 218 - 0,0 56 1.018,8
18:34 19,6 15,5 17,7 77,0 4,2 244 - 0,0 56 1.018,8
18:33 19,6 15,3 17,5 76,0 4,6 234 - 0,0 57 1.018,8
18:32 19,6 15,3 17,5 76,0 5,1 242 - 0,0 58 1.018,8
18:31 19,6 15,3 17,5 76,0 5,2 244 - 0,0 56 1.018,8
18:30 19,5 15,3 17,5 76,0 5,0 253 - 0,0 56 1.018,8
18:29 19,5 15,3 17,5 76,0 4,7 226 - 0,0 56 1.018,8
18:28 19,6 15,3 17,5 76,0 4,7 261 - 0,0 56 1.018,8
18:27 19,5 15,3 17,5 76,0 4,7 229 - 0,0 56 1.018,8
18:26 19,5 15,3 17,5 76,0 5,0 220 - 0,0 57 1.018,8
18:25 19,5 15,3 17,5 76,0 5,0 212 - 0,0 58 1.018,8
18:24 19,5 15,3 17,5 76,0 4,9 233 - 0,0 58 1.018,8
18:23 19,5 15,3 17,5 76,0 5,0 248 - 0,0 61 1.018,8
18:22 19,6 15,3 17,5 76,0 5,2 266 - 0,0 63 1.018,8
18:21 19,6 15,3 17,5 76,0 5,2 235 - 0,0 68 1.018,8
18:20 19,6 15,3 17,5 76,0 5,1 232 - 0,0 73 1.018,8
18:19 19,6 15,3 17,5 76,0 5,1 244 - 0,0 78 1.018,8
18:18 19,6 15,3 17,5 76,0 5,3 275 - 0,0 83 1.018,8
18:17 19,6 15,3 17,6 76,0 5,1 226 - 0,0 87 1.018,8
18:16 19,6 15,3 17,6 76,0 5,3 234 - 0,0 90 1.018,8
18:15 19,6 15,3 17,6 76,0 5,3 243 - 0,0 92 1.018,8
18:14 19,6 15,3 17,6 76,0 5,3 225 - 0,0 96 1.018,8
18:13 19,6 15,2 17,5 75,5 5,2 227 - 0,0 97 1.018,8
18:12 19,6 15,3 17,5 75,7 5,2 192 - 0,0 97 1.018,8
18:11 19,6 15,3 17,6 76,0 5,4 247 - 0,0 96 1.018,8
18:10 19,7 15,4 17,6 76,0 5,8 245 - 0,0 93 1.018,8
18:09 19,7 15,4 17,6 76,0 5,7 225 - 0,0 89 1.018,8
18:08 19,7 15,4 17,6 76,0 5,3 238 - 0,0 84 1.018,9
18:07 19,7 15,4 17,6 76,0 5,4 269 - 0,0 79 1.018,9
18:06 19,7 15,3 17,5 75,3 5,5 234 - 0,0 77 1.018,9
18:05 19,7 15,2 17,5 75,0 5,7 259 - 0,0 76 1.018,9
18:04 19,7 15,4 17,7 75,8 5,7 238 - 0,0 76 1.018,9
18:03 19,7 15,2 17,5 75,0 5,0 243 - 0,0 75 1.018,9
18:02 19,7 15,2 17,5 75,0 4,9 177 - 0,0 72 1.018,9
18:01 19,8 15,3 17,6 75,0 4,7 228 - 0,0 72 1.018,9
18:00 19,8 15,3 17,6 75,0 5,5 272 - 0,0 72 1.018,9
 
17:59 19,8 15,3 17,6 75,0 5,2 232 - 0,0 72 1.018,9
17:58 19,8 15,3 17,6 75,0 5,4 205 - 0,0 73 1.018,9
17:57 19,8 15,3 17,6 75,0 5,5 255 - 0,0 75 1.018,9
17:56 19,8 15,4 17,7 75,0 5,8 238 - 0,0 78 1.018,9
17:55 19,9 15,4 17,7 75,0 5,7 236 - 0,0 84 1.018,9
17:54 19,9 15,4 17,7 75,0 5,4 245 - 0,0 91 1.018,9
17:53 19,9 15,4 17,7 75,0 5,0 234 - 0,0 97 1.019,0
17:52 19,9 15,2 17,6 74,0 4,9 230 - 0,0 103 1.018,9
17:51 19,9 15,2 17,6 74,0 4,8 230 - 0,0 109 1.018,9
17:50 19,9 15,1 17,5 73,5 4,9 261 - 0,0 114 1.019,0
17:49 19,9 15,0 17,4 73,0 4,9 231 - 0,0 120 1.018,9
17:48 19,9 15,0 17,4 73,0 5,2 230 - 0,0 120 1.018,9
17:47 19,9 15,0 17,4 73,0 5,4 253 - 0,0 123 1.018,8
17:46 19,9 15,0 17,4 73,0 5,5 240 - 0,0 130 1.018,9
17:45 19,9 15,0 17,4 73,0 5,2 233 - 0,0 139 1.018,9
17:44 19,9 14,9 17,3 72,5 5,1 213 - 0,0 145 1.018,9
17:43 19,9 14,8 17,3 72,0 5,4 240 - 0,0 153 1.019,0
17:42 19,9 14,9 17,4 72,8 5,8 227 - 0,0 165 1.019,0
17:41 19,9 14,8 17,3 72,2 5,8 243 - 0,0 168 1.019,0
17:40 19,9 15,0 17,4 72,8 5,8 239 - 0,0 178 1.018,9
17:39 19,9 14,9 17,3 72,4 5,7 243 - 0,0 218 1.019,0
17:38 19,9 15,0 17,4 73,0 5,7 255 - 0,0 229 1.019,0
17:37 19,9 15,0 17,4 73,0 5,5 234 - 0,0 223 1.019,0
17:36 19,9 15,0 17,4 72,9 5,5 276 - 0,0 210 1.019,0
17:35 19,9 14,9 17,3 72,1 5,5 274 - 0,0 191 1.019,0
17:34 19,9 15,0 17,4 73,0 5,6 235 - 0,0 192 1.019,0
17:33 19,9 15,0 17,4 72,6 5,6 249 - 0,0 198 1.019,0
17:32 19,9 14,8 17,3 72,0 5,8 203 - 0,0 207 1.019,0
17:31 19,9 14,8 17,3 72,0 6,1 236 - 0,0 212 1.019,0
17:30 20,0 14,8 17,3 72,0 6,6 247 - 0,0 221 1.019,0
17:29 20,0 14,8 17,3 72,0 6,5 249 - 0,0 259 1.019,0
17:28 20,0 14,8 17,3 71,7 6,6 232 - 0,0 290 1.019,0
17:27 19,9 14,7 17,2 71,5 6,7 255 - 0,0 290 1.019,0
17:26 20,0 14,8 17,3 72,0 6,8 222 - 0,0 317 1.019,0
17:25 19,9 14,8 17,3 72,0 6,9 237 - 0,0 318 1.019,0
17:24 19,9 14,8 17,3 72,0 6,5 244 - 0,0 308 1.019,0
17:23 20,0 14,9 17,3 72,0 6,4 208 - 0,0 273 1.019,0
17:22 20,0 14,9 17,3 72,0 6,6 199 - 0,0 231 1.019,0
17:21 20,0 14,9 17,3 72,0 6,3 213 - 0,0 225 1.019,0
17:20 20,0 14,9 17,3 72,0 5,9 247 - 0,0 220 1.019,0
17:19 20,0 14,9 17,3 72,0 5,9 279 - 0,0 216 1.019,1
17:18 20,0 14,9 17,3 72,0 5,8 219 - 0,0 214 1.019,1
17:17 20,0 14,8 17,3 71,8 6,2 226 - 0,0 212 1.019,1
17:16 20,0 14,8 17,3 71,5 6,3 249 - 0,0 208 1.019,1
17:15 20,0 14,7 17,2 71,6 6,5 235 - 0,0 201 1.019,0
17:14 20,0 14,8 17,3 71,6 6,2 251 - 0,0 195 1.019,1
17:13 20,0 14,9 17,3 72,0 6,2 203 - 0,0 190 1.019,1
17:12 20,0 15,1 17,5 72,9 5,5 222 - 0,0 189 1.019,1
17:11 20,1 15,1 17,6 73,0 5,6 282 - 0,0 192 1.019,0
17:10 20,1 15,1 17,6 73,0 5,9 231 - 0,0 199 1.019,0
17:09 20,1 15,2 17,6 73,0 6,3 253 - 0,0 202 1.019,0
17:08 20,1 15,2 17,6 73,0 6,3 249 - 0,0 212 1.019,0
17:07 20,1 15,0 17,5 72,2 6,3 224 - 0,0 216 1.019,1
17:06 20,1 15,0 17,4 71,9 6,4 247 - 0,0 228 1.019,1
17:05 20,1 14,8 17,3 71,2 6,6 244 - 0,0 234 1.019,1
17:04 20,1 15,0 17,4 72,0 6,7 251 - 0,0 231 1.019,1
17:03 20,1 15,1 17,5 72,5 6,7 257 - 0,0 227 1.019,0
17:02 20,1 15,2 17,6 73,0 6,5 256 - 0,0 220 1.019,1
17:01 20,1 15,0 17,5 72,2 6,3 242 - 0,0 212 1.019,1
17:00 20,1 15,0 17,5 72,0 5,9 246 - 0,0 202 1.019,1
 
16:59 20,1 15,0 17,5 72,0 6,3 193 - 0,0 201 1.019,1
16:58 20,2 15,1 17,5 72,0 6,7 232 - 0,0 199 1.019,1
16:57 20,2 15,1 17,5 72,0 7,0 258 - 0,0 200 1.019,2
16:56 20,2 14,9 17,4 71,3 6,9 215 - 0,0 210 1.019,3
16:55 20,2 14,9 17,4 71,0 6,8 235 - 0,0 206 1.019,3
16:54 20,3 15,0 17,5 71,1 7,0 193 - 0,0 204 1.019,3
16:53 20,3 15,3 17,7 72,4 7,1 243 - 0,0 228 1.019,2
16:52 20,4 15,3 17,8 72,4 7,5 255 - 0,0 289 1.019,3
16:51 20,4 15,3 17,7 72,0 7,2 258 - 0,0 320 1.019,4
16:50 20,4 15,4 17,9 72,7 7,0 251 - 0,0 314 1.019,4
16:49 20,4 15,3 17,8 72,1 6,9 266 - 0,0 323 1.019,3
16:48 20,4 15,5 17,9 73,0 6,9 276 - 0,0 373 1.019,3
16:47 20,4 15,5 17,9 73,0 6,8 259 - 0,0 457 1.019,3
16:46 20,4 15,6 18,0 73,5 6,4 263 - 0,0 510 1.019,3
16:45 20,4 15,6 18,0 73,5 6,2 284 - 0,0 520 1.019,4
16:44 20,4 15,5 17,9 73,0 6,3 261 - 0,0 545 1.019,4
16:43 20,4 15,5 17,9 73,0 6,4 269 - 0,0 579 1.019,4
16:42 20,4 15,4 17,8 73,0 6,6 252 - 0,0 580 1.019,4
16:41 20,3 15,4 17,8 73,0 6,6 265 - 0,0 523 1.019,3
16:40 20,3 15,4 17,8 73,0 6,1 241 - 0,0 331 1.019,3
16:39 20,3 15,4 17,8 73,0 5,9 205 - 0,0 288 1.019,3
16:38 20,4 15,6 18,0 73,8 5,6 261 - 0,0 297 1.019,3
16:37 20,4 15,9 18,2 74,9 5,3 219 - 0,0 315 1.019,3
16:36 20,4 15,9 18,2 75,0 4,9 224 - 0,0 296 1.019,3
16:35 20,4 15,9 18,2 75,0 4,6 236 - 0,0 324 1.019,3
16:34 20,3 15,7 18,1 74,6 4,7 263 - 0,0 330 1.019,3
16:33 20,3 15,6 18,0 74,0 4,8 253 - 0,0 294 1.019,3
16:32 20,3 15,6 18,0 74,0 4,7 249 - 0,0 270 1.019,3
16:31 20,3 15,7 18,0 74,2 4,6 255 - 0,0 262 1.019,2
16:30 20,3 15,8 18,1 74,8 4,3 234 - 0,0 261 1.019,2
16:29 20,3 15,6 17,9 74,0 4,1 217 - 0,0 277 1.019,2
16:28 20,2 15,5 17,9 74,0 4,1 230 - 0,0 343 1.019,2
16:27 20,2 15,5 17,9 74,0 4,3 189 - 0,0 358 1.019,2
16:26 20,2 15,5 17,8 74,0 4,6 239 - 0,0 291 1.019,2
16:25 20,2 15,5 17,8 74,0 4,8 219 - 0,0 243 1.019,3
16:24 20,2 15,5 17,8 74,0 4,8 199 - 0,0 186 1.019,3
16:23 20,2 15,5 17,9 74,4 4,7 229 - 0,0 176 1.019,3
16:22 20,2 15,7 18,0 75,0 5,1 247 - 0,0 162 1.019,3
16:21 20,2 15,7 18,0 75,0 5,3 236 - 0,0 149 1.019,4
16:20 20,2 15,5 17,9 74,2 5,5 249 - 0,0 141 1.019,3
16:19 20,2 15,5 17,9 74,1 5,6 247 - 0,0 136 1.019,3
16:18 20,3 15,7 18,0 74,8 5,6 263 - 0,0 134 1.019,4
16:17 20,3 15,6 18,0 74,4 5,7 258 - 0,0 136 1.019,4
16:16 20,4 15,8 18,2 75,0 5,4 261 - 0,0 144 1.019,3
16:15 20,4 15,9 18,2 75,0 5,1 244 - 0,0 154 1.019,3
16:14 20,4 15,9 18,2 75,0 4,6 232 - 0,0 167 1.019,3
16:13 20,5 16,0 18,3 75,0 4,1 261 - 0,0 180 1.019,3
16:12 20,5 16,0 18,3 75,0 3,7 256 - 0,0 194 1.019,3
16:11 20,6 16,0 18,4 75,0 3,7 215 - 0,0 208 1.019,3
16:10 20,6 15,9 18,3 74,5 3,8 252 - 0,0 234 1.019,3
16:09 20,6 15,8 18,2 74,0 3,8 240 - 0,0 230 1.019,3
16:08 20,6 15,8 18,2 74,0 3,7 279 - 0,0 342 1.019,3
16:07 20,6 15,8 18,2 73,9 3,9 234 - 0,0 485 1.019,2
16:06 20,5 15,6 18,0 73,0 4,2 232 - 0,0 373 1.019,3
16:05 20,5 15,5 17,9 72,6 3,9 253 - 0,0 325 1.019,3
16:04 20,5 15,3 17,8 72,0 4,1 186 - 0,0 455 1.019,3
16:03 20,5 15,3 17,8 72,0 4,3 207 - 0,0 454 1.019,3
16:02 20,5 15,5 18,0 72,9 4,6 253 - 0,0 396 1.019,2
16:01 20,5 15,6 18,0 73,0 4,7 233 - 0,0 396 1.019,2
16:00 20,5 15,5 17,9 72,7 4,9 210 - 0,0 451 1.019,3
 
15:59 20,5 15,3 17,8 72,0 4,9 242 - 0,0 463 1.019,3
15:58 20,4 15,3 17,8 72,0 5,4 270 - 0,0 459 1.019,3
15:57 20,4 15,3 17,8 72,0 5,2 284 - 0,0 476 1.019,3
15:56 20,4 15,2 17,7 72,0 5,0 226 - 0,0 565 1.019,2
15:55 20,3 15,0 17,5 71,2 5,4 267 - 0,0 583 1.019,2
15:54 20,3 15,2 17,7 72,0 5,6 257 - 0,0 555 1.019,2
15:53 20,3 15,2 17,7 72,0 5,7 250 - 0,0 563 1.019,2
15:52 20,3 15,2 17,6 72,0 5,3 264 - 0,0 535 1.019,2
15:51 20,3 15,2 17,6 72,0 5,3 224 - 0,0 494 1.019,2
15:50 20,3 15,1 17,6 72,0 5,4 249 - 0,0 441 1.019,2
15:49 20,3 15,0 17,5 71,2 5,5 215 - 0,0 329 1.019,2
15:48 20,3 15,3 17,7 72,4 5,6 260 - 0,0 248 1.019,2
15:47 20,3 15,3 17,7 72,5 5,8 255 - 0,0 460 1.019,1
15:46 20,3 15,2 17,7 72,0 5,6 261 - 0,0 494 1.019,1
15:45 20,3 15,2 17,7 72,0 5,7 238 - 0,0 479 1.019,1
15:44 20,3 15,0 17,5 71,2 5,9 253 - 0,0 526 1.019,2
15:43 20,3 15,2 17,7 72,0 5,8 241 - 0,0 591 1.019,2
15:42 20,3 15,2 17,6 72,0 5,8 208 - 0,0 591 1.019,2
15:41 20,3 15,0 17,5 71,3 5,8 254 - 0,0 591 1.019,2
15:40 20,3 15,1 17,6 71,7 5,9 226 - 0,0 530 1.019,2
15:39 20,3 15,2 17,6 72,0 5,7 259 - 0,0 501 1.019,1
15:38 20,2 14,9 17,4 71,1 5,6 218 - 0,0 498 1.019,1
15:37 20,2 14,9 17,4 71,0 5,6 224 - 0,0 491 1.019,2
15:36 20,2 14,9 17,4 71,0 5,9 265 - 0,0 481 1.019,2
15:35 20,2 14,9 17,4 71,0 6,5 265 - 0,0 445 1.019,1
15:34 20,2 14,9 17,4 71,0 6,5 254 - 0,0 422 1.019,1
15:33 20,2 15,1 17,6 72,0 6,0 258 - 0,0 388 1.019,1
15:32 20,3 15,1 17,6 72,0 5,8 218 - 0,0 372 1.019,1
15:31 20,3 15,1 17,6 72,0 5,8 245 - 0,0 362 1.019,1
15:30 20,3 15,1 17,6 71,9 6,1 259 - 0,0 353 1.019,1
15:29 20,3 15,0 17,5 71,3 6,0 255 - 0,0 354 1.019,1
15:28 20,3 15,1 17,6 71,7 6,1 231 - 0,0 363 1.019,1
15:27 20,3 15,2 17,6 72,0 6,2 255 - 0,0 363 1.019,1
15:26 20,3 15,2 17,7 72,0 6,0 251 - 0,0 349 1.019,2
15:25 20,3 15,2 17,7 72,0 5,7 240 - 0,0 493 1.019,2
15:24 20,3 15,3 17,7 72,5 5,6 232 - 0,0 584 1.019,2
15:23 20,4 15,6 18,0 73,8 5,3 245 - 0,0 586 1.019,1
15:22 20,4 15,7 18,0 74,0 4,8 214 - 0,0 633 1.019,2
15:21 20,3 15,6 18,0 74,0 4,5 254 - 0,0 673 1.019,3
15:20 20,3 15,8 18,1 75,0 4,6 255 - 0,0 661 1.019,3
15:19 20,3 15,8 18,1 75,0 4,5 251 - 0,0 655 1.019,3
15:18 20,3 15,7 18,0 74,6 4,3 252 - 0,0 655 1.019,3
15:17 20,3 15,6 17,9 74,0 4,5 269 - 0,0 656 1.019,2
15:16 20,3 15,6 17,9 74,0 4,6 244 - 0,0 646 1.019,2
15:15 20,3 15,6 17,9 74,0 4,5 252 - 0,0 645 1.019,2
15:14 20,3 15,5 17,9 74,0 4,5 269 - 0,0 640 1.019,2
15:13 20,2 15,4 17,8 73,7 4,4 267 - 0,0 596 1.019,3
15:12 20,2 15,2 17,6 73,0 4,2 248 - 0,0 547 1.019,2
15:11 20,1 15,2 17,6 73,0 3,9 266 - 0,0 570 1.019,1
15:10 20,1 15,2 17,6 73,0 4,0 263 - 0,0 609 1.019,1
15:09 20,0 15,1 17,5 73,0 4,1 263 - 0,0 624 1.019,2
15:08 19,9 15,0 17,4 73,0 4,1 263 - 0,0 633 1.019,2
15:07 19,9 15,0 17,4 73,0 4,0 232 - 0,0 632 1.019,3
15:06 19,8 14,9 17,3 73,0 4,2 247 - 0,0 583 1.019,3
15:05 19,8 14,9 17,3 73,0 4,6 247 - 0,0 322 1.019,3
15:04 19,8 14,9 17,3 73,0 4,9 243 - 0,0 297 1.019,3
15:03 19,8 14,9 17,3 73,1 5,2 255 - 0,0 262 1.019,3
15:02 19,7 15,1 17,4 74,0 5,4 257 - 0,0 262 1.019,3
15:01 19,8 15,1 17,4 74,0 5,5 255 - 0,0 231 1.019,3
15:00 19,8 15,0 17,4 73,5 5,8 256 - 0,0 191 1.019,3
 
14:59 19,8 15,0 17,4 73,6 6,1 258 - 0,0 189 1.019,4
14:58 19,8 15,1 17,5 74,0 6,3 256 - 0,0 231 1.019,4
14:57 19,9 15,2 17,5 74,0 6,3 263 - 0,0 247 1.019,4
14:56 19,9 15,2 17,6 74,0 6,2 261 - 0,0 228 1.019,4
14:55 20,0 15,3 17,6 74,0 5,9 258 - 0,0 219 1.019,3
14:54 20,0 15,3 17,7 74,0 5,5 254 - 0,0 226 1.019,3
14:53 20,0 15,2 17,6 73,3 5,3 224 - 0,0 267 1.019,4
14:52 20,0 14,9 17,4 72,1 5,5 260 - 0,0 317 1.019,4
14:51 20,0 14,9 17,4 72,1 5,9 246 - 0,0 380 1.019,3
14:50 20,1 15,1 17,6 73,0 5,8 255 - 0,0 474 1.019,3
14:49 20,0 15,1 17,5 73,0 5,7 255 - 0,0 536 1.019,3
14:48 20,0 14,9 17,4 72,5 5,2 251 - 0,0 611 1.019,3
14:47 19,9 15,0 17,4 72,7 5,3 199 - 0,0 577 1.019,3
14:46 19,9 14,9 17,3 72,2 5,5 250 - 0,0 531 1.019,3
14:45 19,9 14,8 17,3 72,2 5,9 242 - 0,0 410 1.019,2
14:44 19,9 15,0 17,4 73,0 5,6 229 - 0,0 316 1.019,2
14:43 20,0 15,1 17,5 73,5 4,9 257 - 0,0 505 1.019,2
14:42 20,0 15,3 17,6 74,0 4,8 286 - 0,0 568 1.019,3
14:41 19,9 15,1 17,5 73,3 4,9 237 - 0,0 568 1.019,3
14:40 19,9 15,0 17,4 73,0 5,4 218 - 0,0 553 1.019,3
14:39 19,9 15,0 17,4 73,0 5,3 219 - 0,0 525 1.019,3
14:38 19,9 15,1 17,5 73,3 5,3 247 - 0,0 455 1.019,3
14:37 19,9 15,2 17,5 73,6 5,1 257 - 0,0 486 1.019,3
14:36 19,9 15,0 17,4 73,0 5,2 213 - 0,0 538 1.019,3
14:35 19,9 15,0 17,4 73,0 5,3 236 - 0,0 534 1.019,3
14:34 19,9 15,0 17,4 73,0 5,3 258 - 0,0 598 1.019,2
14:33 19,9 15,0 17,4 73,2 5,1 231 - 0,0 617 1.019,2
14:32 19,9 15,2 17,6 74,3 5,3 197 - 0,0 500 1.019,3
14:31 19,9 15,5 17,8 75,5 5,3 247 - 0,0 427 1.019,3
14:30 19,9 15,5 17,8 75,4 5,2 227 - 0,0 659 1.019,4
14:29 19,8 15,4 17,7 75,0 4,9 250 - 0,0 667 1.019,4
14:28 19,8 15,3 17,6 75,0 4,6 249 - 0,0 662 1.019,3
14:27 19,8 15,3 17,6 75,0 4,5 230 - 0,0 650 1.019,4
14:26 19,8 15,4 17,6 75,4 4,6 214 - 0,0 508 1.019,3
14:25 19,8 15,4 17,7 75,5 4,4 232 - 0,0 455 1.019,3
14:24 19,7 15,2 17,5 75,0 4,4 243 - 0,0 594 1.019,3
14:23 19,7 15,2 17,5 75,0 4,6 249 - 0,0 601 1.019,3
14:22 19,7 15,2 17,5 75,0 4,9 257 - 0,0 601 1.019,3
14:21 19,7 15,2 17,5 75,0 5,0 257 - 0,0 566 1.019,4
14:20 19,6 15,2 17,5 75,0 5,0 247 - 0,0 493 1.019,4
14:19 19,6 15,2 17,5 75,5 4,9 260 - 0,0 464 1.019,3
14:18 19,6 15,3 17,6 76,0 4,8 230 - 0,0 447 1.019,3
14:17 19,6 15,3 17,5 76,0 4,7 268 - 0,0 462 1.019,3
14:16 19,6 15,3 17,5 76,0 4,8 232 - 0,0 498 1.019,3
14:15 19,5 15,2 17,5 76,0 4,8 253 - 0,0 448 1.019,3
14:14 19,5 15,2 17,5 76,0 4,9 247 - 0,0 428 1.019,4
14:13 19,5 15,2 17,5 76,0 4,9 244 - 0,0 380 1.019,4
14:12 19,5 15,2 17,5 76,0 5,0 244 - 0,0 409 1.019,4
14:11 19,5 15,1 17,4 75,9 4,8 251 - 0,0 372 1.019,4
14:10 19,4 14,9 17,2 75,0 4,7 231 - 0,0 363 1.019,4
14:09 19,4 15,0 17,3 75,3 4,9 234 - 0,0 327 1.019,4
14:08 19,4 15,1 17,4 76,0 5,3 261 - 0,0 311 1.019,4
14:07 19,4 15,1 17,4 76,0 5,4 263 - 0,0 333 1.019,4
14:06 19,4 15,2 17,4 76,0 5,5 231 - 0,0 340 1.019,4
14:05 19,4 15,1 17,4 76,0 5,6 233 - 0,0 285 1.019,4
14:04 19,4 15,1 17,4 76,0 5,5 257 - 0,0 277 1.019,3
14:03 19,4 15,1 17,4 76,0 5,5 257 - 0,0 291 1.019,3
14:02 19,4 15,1 17,4 76,0 5,5 237 - 0,0 331 1.019,3
14:01 19,4 15,1 17,4 76,0 5,6 241 - 0,0 343 1.019,3
14:00 19,4 15,1 17,4 76,0 5,7 247 - 0,0 336 1.019,3
 
13:59 19,3 15,1 17,3 76,0 5,7 251 - 0,0 308 1.019,3
13:58 19,3 15,1 17,3 76,0 5,7 253 - 0,0 253 1.019,3
13:57 19,3 15,1 17,3 76,0 5,7 228 - 0,0 229 1.019,3
13:56 19,3 15,2 17,4 76,5 5,4 257 - 0,0 229 1.019,4
13:55 19,3 15,1 17,4 76,4 5,1 212 - 0,0 227 1.019,4
13:54 19,3 15,1 17,3 76,0 5,0 256 - 0,0 220 1.019,4
13:53 19,3 15,1 17,3 76,0 5,0 218 - 0,0 240 1.019,4
13:52 19,4 15,1 17,4 76,0 5,1 244 - 0,0 230 1.019,5
13:51 19,4 15,1 17,4 76,0 5,1 246 - 0,0 232 1.019,5
13:50 19,4 15,1 17,4 76,0 5,0 236 - 0,0 230 1.019,5
13:49 19,4 15,1 17,4 76,0 5,1 231 - 0,0 232 1.019,5
13:48 19,4 15,0 17,3 75,3 5,6 263 - 0,0 250 1.019,5
13:47 19,4 15,1 17,4 75,9 6,1 248 - 0,0 251 1.019,5
13:46 19,4 15,2 17,4 76,0 6,3 236 - 0,0 268 1.019,6
13:45 19,4 15,2 17,4 76,0 6,4 259 - 0,0 336 1.019,6
13:44 19,5 15,2 17,4 76,0 6,3 240 - 0,0 429 1.019,6
13:43 19,5 15,1 17,3 75,4 6,3 265 - 0,0 449 1.019,6
13:42 19,5 15,0 17,3 75,0 6,5 246 - 0,0 541 1.019,6
13:41 19,5 15,1 17,4 75,9 6,8 261 - 0,0 654 1.019,7
13:40 19,4 15,0 17,3 75,0 6,6 234 - 0,0 519 1.019,7
13:39 19,4 15,0 17,3 75,0 6,7 276 - 0,0 408 1.019,7
13:38 19,4 15,0 17,3 75,0 7,1 266 - 0,0 408 1.019,7
13:37 19,5 15,1 17,4 75,7 6,7 240 - 0,0 416 1.019,7
13:36 19,5 15,0 17,3 75,2 6,8 205 - 0,0 440 1.019,7
13:35 19,4 14,9 17,3 74,9 6,3 251 - 0,0 355 1.019,7
13:34 19,4 14,8 17,1 74,0 7,2 290 - 0,0 446 1.019,6
13:33 19,4 14,8 17,1 74,0 7,4 276 - 0,0 533 1.019,5
13:32 19,4 14,9 17,2 74,6 7,4 275 - 0,0 402 1.019,6
13:31 19,4 15,0 17,3 75,0 7,3 263 - 0,0 380 1.019,5
13:30 19,5 15,0 17,3 75,0 7,3 249 - 0,0 359 1.019,6
13:29 19,5 15,0 17,3 75,0 6,8 266 - 0,0 336 1.019,6
13:28 19,5 15,0 17,3 75,0 6,5 226 - 0,0 290 1.019,6
13:27 19,4 15,0 17,3 75,0 6,4 256 - 0,0 290 1.019,7
13:26 19,5 15,0 17,3 75,0 6,4 208 - 0,0 290 1.019,6
13:25 19,5 15,0 17,3 75,0 6,4 244 - 0,0 290 1.019,6
13:24 19,5 15,0 17,3 75,0 6,3 261 - 0,0 297 1.019,6
13:23 19,5 15,0 17,3 75,0 5,9 224 - 0,0 308 1.019,6
13:22 19,5 15,1 17,4 75,0 6,3 210 - 0,0 287 1.019,7
13:21 19,5 15,1 17,4 75,0 6,3 226 - 0,0 342 1.019,6
13:20 19,6 15,1 17,4 75,0 5,9 213 - 0,0 352 1.019,6
13:19 19,6 15,2 17,5 75,8 5,0 178 - 0,0 365 1.019,6
13:18 19,6 15,1 17,4 75,1 4,9 271 - 0,0 384 1.019,6
13:17 19,6 15,1 17,4 75,0 6,0 259 - 0,0 483 1.019,5
13:16 19,6 15,1 17,4 75,0 5,8 236 - 0,0 483 1.019,5
13:15 19,6 15,1 17,4 75,0 5,8 230 - 0,0 483 1.019,5
13:14 19,6 15,1 17,4 75,0 6,0 198 - 0,0 564 1.019,5
13:13 19,6 15,1 17,4 75,0 5,6 207 - 0,0 529 1.019,5
13:12 19,5 15,0 17,3 75,0 5,7 257 - 0,0 430 1.019,4
13:11 19,5 15,0 17,3 75,0 6,3 259 - 0,0 281 1.019,5
13:10 19,5 15,0 17,3 75,0 6,4 233 - 0,0 281 1.019,5
13:09 19,5 15,0 17,3 75,0 6,6 225 - 0,0 281 1.019,5
13:08 19,5 15,0 17,3 75,0 6,8 242 - 0,0 281 1.019,5
13:07 19,5 15,0 17,3 75,0 7,0 248 - 0,0 319 1.019,5
13:06 19,5 14,8 17,2 74,2 6,8 265 - 0,0 432 1.019,5
13:05 19,5 15,0 17,3 74,8 6,7 210 - 0,0 469 1.019,5
13:04 19,5 14,8 17,2 74,4 6,9 258 - 0,0 499 1.019,4
13:03 19,4 15,0 17,3 75,0 7,0 226 - 0,0 568 1.019,4
13:02 19,4 14,8 17,2 74,4 6,3 205 - 0,0 366 1.019,4
13:01 19,4 14,7 17,1 74,0 6,5 288 - 0,0 357 1.019,5
13:00 19,5 15,2 17,4 76,0 7,5 242 - 0,0 362 1.019,6
 
12:59 19,5 15,3 17,5 76,6 7,7 262 - 0,0 319 1.019,6
12:58 19,5 15,1 17,4 75,4 7,8 266 - 0,0 339 1.019,6
12:57 19,5 15,2 17,5 76,0 8,0 257 - 0,0 282 1.019,6
12:56 19,5 15,2 17,5 76,0 8,0 257 - 0,0 271 1.019,5
12:55 19,5 15,2 17,5 76,0 7,8 265 - 0,0 316 1.019,5
12:54 19,5 15,2 17,5 75,9 7,5 280 - 0,0 359 1.019,5
12:53 19,5 15,1 17,4 75,0 6,8 249 - 0,0 327 1.019,5
12:52 19,5 15,1 17,4 75,4 7,3 209 - 0,0 347 1.019,4
12:51 19,5 15,3 17,5 76,0 7,8 207 - 0,0 429 1.019,4
12:50 19,5 15,1 17,4 75,3 7,4 221 - 0,0 470 1.019,5
12:49 19,5 15,0 17,3 75,0 7,7 261 - 0,0 636 1.019,4
12:48 19,5 15,2 17,4 76,0 8,3 271 - 0,0 499 1.019,4
12:47 19,4 15,1 17,3 75,8 7,9 270 - 0,0 332 1.019,5
12:46 19,4 15,0 17,3 75,4 7,2 240 - 0,0 261 1.019,5
12:45 19,4 15,1 17,4 76,0 7,0 216 - 0,0 237 1.019,6
12:44 19,4 15,5 17,7 77,7 6,6 267 - 0,0 234 1.019,5
12:43 19,5 15,8 17,9 78,9 6,0 232 - 0,0 218 1.019,5
12:42 19,5 15,6 17,8 78,1 5,1 262 - 0,0 208 1.019,4
12:41 19,5 15,6 17,8 78,0 4,9 219 - 0,0 202 1.019,5
12:40 19,5 15,6 17,8 78,0 5,3 247 - 0,0 191 1.019,4
12:39 19,5 15,6 17,8 78,0 5,4 247 - 0,0 172 1.019,4
12:38 19,5 15,6 17,8 78,0 5,4 224 - 0,0 156 1.019,4
12:37 19,5 15,4 17,6 77,2 5,7 247 - 0,0 170 1.019,4
12:36 19,5 15,4 17,6 77,0 6,0 218 - 0,0 202 1.019,5
12:35 19,5 15,4 17,6 77,3 6,4 224 - 0,0 271 1.019,4
12:34 19,4 15,6 17,7 78,0 6,3 213 - 0,0 295 1.019,4
12:33 19,4 15,7 17,8 78,6 5,9 224 - 0,0 242 1.019,4
12:32 19,5 15,8 17,9 79,0 5,1 235 - 0,0 193 1.019,5
12:31 19,5 15,8 17,9 79,0 4,6 232 - 0,0 172 1.019,5
12:30 19,4 15,7 17,8 78,8 4,6 226 - 0,0 166 1.019,5
12:29 19,4 15,5 17,7 78,0 4,9 230 - 0,0 163 1.019,5
12:28 19,4 15,6 17,7 78,0 5,4 224 - 0,0 162 1.019,4
12:27 19,4 15,6 17,7 78,0 5,8 245 - 0,0 159 1.019,4
12:26 19,5 15,6 17,7 78,0 6,3 197 - 0,0 130 1.019,4
12:25 19,5 15,6 17,8 78,0 6,3 234 - 0,0 110 1.019,5
12:24 19,6 15,7 17,8 78,0 5,5 193 - 0,0 81 1.019,5
12:23 19,5 15,6 17,8 77,7 5,2 249 - 0,0 85 1.019,5
12:22 19,6 15,6 17,8 77,5 5,9 230 - 0,0 94 1.019,4
12:21 19,6 15,6 17,8 77,4 6,3 222 - 0,0 98 1.019,4
12:20 19,6 15,7 17,9 77,8 6,1 240 - 0,0 115 1.019,5
12:19 19,6 15,5 17,7 77,1 5,8 239 - 0,0 143 1.019,4
12:18 19,7 15,8 17,9 78,0 5,7 256 - 0,0 183 1.019,3
12:17 19,7 15,7 17,9 77,7 5,6 232 - 0,0 225 1.019,3
12:16 19,7 15,6 17,8 77,0 5,5 231 - 0,0 233 1.019,4
12:15 19,7 15,6 17,8 77,0 5,4 222 - 0,0 230 1.019,4
12:14 19,7 15,6 17,8 77,0 5,7 236 - 0,0 244 1.019,4
12:13 19,7 15,8 18,0 78,0 5,5 234 - 0,0 297 1.019,4
12:12 19,7 15,8 18,0 78,0 5,0 211 - 0,0 297 1.019,4
12:11 19,7 15,8 18,0 78,0 4,8 238 - 0,0 341 1.019,3
12:10 19,7 15,7 17,9 77,5 5,2 206 - 0,0 355 1.019,3
12:09 19,7 15,7 17,9 77,0 5,4 245 - 0,0 381 1.019,3
12:08 19,7 15,6 17,8 77,0 5,2 215 - 0,0 366 1.019,4
12:07 19,7 15,6 17,8 77,0 5,1 191 - 0,0 338 1.019,4
12:06 19,7 15,6 17,8 77,0 4,9 238 - 0,0 334 1.019,4
12:05 19,7 15,6 17,8 77,0 5,4 219 - 0,0 347 1.019,5
12:04 19,7 15,7 17,9 77,6 5,6 228 - 0,0 249 1.019,4
12:03 19,7 15,7 17,9 77,3 5,4 211 - 0,0 271 1.019,4
12:02 19,7 15,6 17,8 77,0 5,1 208 - 0,0 406 1.019,4
12:01 19,6 15,6 17,8 77,0 5,2 243 - 0,0 412 1.019,4
12:00 19,6 15,6 17,8 77,0 5,6 224 - 0,0 418 1.019,4
 
11:59 19,7 15,7 17,9 77,4 5,7 234 - 0,0 400 1.019,3
11:58 19,7 15,8 17,9 78,0 5,1 207 - 0,0 387 1.019,3
11:57 19,6 15,7 17,9 78,0 4,1 249 - 0,0 403 1.019,4
11:56 19,5 15,6 17,8 78,0 4,1 247 - 0,0 422 1.019,3
11:55 19,5 15,6 17,8 78,2 4,9 211 - 0,0 431 1.019,3
11:54 19,5 15,8 17,9 79,0 5,4 247 - 0,0 457 1.019,3
11:53 19,5 15,8 17,9 79,0 5,2 226 - 0,0 462 1.019,2
11:52 19,4 15,8 17,9 79,6 5,1 217 - 0,0 498 1.019,2
11:51 19,4 15,9 18,0 80,0 5,1 245 - 0,0 551 1.019,2
11:50 19,3 15,8 17,9 80,0 5,3 219 - 0,0 510 1.019,3
11:49 19,3 15,8 17,9 80,0 5,3 228 - 0,0 472 1.019,3
11:48 19,3 15,9 17,9 80,3 4,9 227 - 0,0 508 1.019,3
11:47 19,3 15,9 17,9 80,6 4,8 193 - 0,0 504 1.019,3
11:46 19,3 15,9 17,9 80,6 5,0 209 - 0,0 490 1.019,3
11:45 19,2 15,9 17,9 81,0 5,1 215 - 0,0 523 1.019,3
11:44 19,2 15,9 17,9 81,0 5,3 244 - 0,0 532 1.019,2
11:43 19,2 15,9 17,9 81,0 5,6 221 - 0,0 470 1.019,2
11:42 19,2 15,9 17,9 81,0 5,7 216 - 0,0 413 1.019,3
11:41 19,2 16,0 18,0 81,5 5,3 189 - 0,0 413 1.019,3
11:40 19,1 16,0 18,0 82,0 4,9 245 - 0,0 422 1.019,2
11:39 19,1 16,0 18,0 82,0 4,8 249 - 0,0 423 1.019,2
11:38 19,1 15,9 17,9 82,0 4,3 219 - 0,0 406 1.019,3
11:37 19,1 15,9 17,9 82,0 3,6 191 - 0,0 410 1.019,3
11:36 19,0 15,9 17,9 82,0 3,6 283 - 0,0 391 1.019,2
11:35 19,0 15,9 17,9 82,0 4,2 226 - 0,0 377 1.019,3
11:34 19,0 15,9 17,9 82,0 4,6 238 - 0,0 324 1.019,3
11:33 19,0 15,9 17,9 82,0 4,7 259 - 0,0 280 1.019,2
11:32 19,0 15,9 17,9 82,0 5,1 212 - 0,0 327 1.019,1
11:31 19,0 15,9 17,9 82,3 5,4 221 - 0,0 378 1.019,1
11:30 19,0 16,1 18,0 83,0 4,9 251 - 0,0 413 1.019,2
11:29 19,0 16,0 18,0 83,0 4,3 216 - 0,0 403 1.019,2
11:28 18,9 16,0 18,0 83,0 3,9 246 - 0,0 393 1.019,3
11:27 18,9 16,0 17,9 83,0 4,2 232 - 0,0 380 1.019,3
11:26 18,9 16,0 17,9 83,0 4,5 207 - 0,0 344 1.019,2
11:25 18,9 16,0 17,9 83,0 4,8 241 - 0,0 328 1.019,2
11:24 18,9 15,9 17,9 83,0 4,7 226 - 0,0 291 1.019,2
11:23 18,8 15,9 17,8 83,0 5,0 256 - 0,0 310 1.019,2
11:22 18,8 16,0 17,9 83,7 5,3 228 - 0,0 244 1.019,2
11:21 18,8 16,1 18,0 84,0 4,8 231 - 0,0 306 1.019,2
11:20 18,8 16,1 18,0 84,0 4,1 189 - 0,0 362 1.019,2
11:19 18,8 16,1 18,0 84,0 4,3 206 - 0,0 379 1.019,2
11:18 18,8 16,1 17,9 84,0 4,5 201 - 0,0 389 1.019,1
11:17 18,8 16,0 17,9 84,0 3,7 228 - 0,0 388 1.019,2
11:16 18,7 16,0 17,9 84,0 3,0 224 - 0,0 371 1.019,2
11:15 18,7 15,9 17,8 84,0 3,1 237 - 0,0 285 1.019,2
11:14 18,7 16,1 17,9 85,0 3,9 232 - 0,0 244 1.019,1
11:13 18,7 16,1 18,0 85,0 3,9 233 - 0,0 225 1.019,1
11:12 18,7 16,1 17,9 85,0 3,1 226 - 0,0 221 1.019,1
11:11 18,6 16,1 17,9 85,0 2,6 184 - 0,0 226 1.019,1
11:10 18,6 16,0 17,9 85,0 2,5 218 - 0,0 215 1.019,2
11:09 18,6 16,0 17,8 85,0 2,6 196 - 0,0 198 1.019,2
11:08 18,6 16,0 17,8 85,0 2,8 197 - 0,0 180 1.019,2
11:07 18,5 16,0 17,8 85,0 2,8 203 - 0,0 172 1.019,2
11:06 18,5 15,9 17,8 85,0 2,8 212 - 0,0 178 1.019,1
11:05 18,5 16,0 17,9 85,6 3,1 219 - 0,0 175 1.019,2
11:04 18,4 16,1 17,9 86,0 3,0 234 - 0,0 164 1.019,2
11:03 18,4 16,0 17,8 86,0 2,8 215 - 0,0 176 1.019,1
11:02 18,4 16,0 17,8 86,0 2,5 222 - 0,0 185 1.019,1
11:01 18,3 16,0 17,8 86,0 2,3 195 - 0,0 177 1.019,1
11:00 18,3 15,9 17,7 86,0 2,1 191 - 0,0 190 1.019,1
 
10:59 18,3 15,9 17,7 86,0 2,0 186 - 0,0 223 1.019,1
10:58 18,3 15,9 17,7 86,0 2,4 211 - 0,0 244 1.019,1
10:57 18,3 15,9 17,7 86,0 2,9 168 - 0,0 237 1.019,1
10:56 18,2 15,9 17,7 86,0 2,8 204 - 0,0 242 1.019,1
10:55 18,2 15,8 17,6 86,0 2,5 195 - 0,0 250 1.019,1
10:54 18,2 15,8 17,6 86,0 2,4 199 - 0,0 250 1.019,1
10:53 18,1 15,8 17,5 86,0 2,5 182 - 0,0 251 1.019,1
10:52 18,1 15,7 17,5 86,0 2,5 188 - 0,0 254 1.019,1
10:51 18,1 15,9 17,6 87,0 2,4 203 - 0,0 255 1.019,1
10:50 18,0 15,8 17,6 87,0 2,2 184 - 0,0 254 1.019,1
10:49 18,0 15,8 17,5 87,0 2,1 217 - 0,0 249 1.019,1
10:48 17,9 15,7 17,4 87,0 2,3 190 - 0,0 242 1.019,1
10:47 17,9 15,7 17,4 87,0 2,6 209 - 0,0 226 1.019,1
10:46 17,8 15,6 17,4 87,0 2,8 201 - 0,0 209 1.019,1
10:45 17,8 15,6 17,3 87,0 3,6 198 - 0,0 196 1.019,0
10:44 17,8 15,6 17,3 87,0 3,0 184 - 0,0 186 1.019,0
10:43 17,7 15,5 17,2 87,0 3,0 207 - 0,0 179 1.019,0
10:42 17,7 15,5 17,2 87,0 3,2 199 - 0,0 176 1.019,0
10:41 17,6 15,5 17,2 87,0 2,1 184 - 0,0 172 1.019,0
10:40 17,6 15,4 17,1 87,0 1,8 205 - 0,0 153 1.019,0
10:39 17,6 15,4 17,1 87,0 2,3 151 - 0,0 132 1.019,0
10:38 17,6 15,4 17,1 87,0 2,6 188 - 0,0 123 1.019,0
10:37 17,5 15,3 17,0 87,0 2,3 186 - 0,0 108 1.019,0
10:36 17,5 15,3 17,0 87,0 1,7 199 - 0,0 94 1.019,0
10:35 17,5 15,3 17,0 87,0 2,3 189 - 0,0 83 1.019,0
10:34 17,5 15,3 17,0 87,0 3,0 240 - 0,0 76 1.019,1
10:33 17,5 15,3 17,0 87,0 3,8 193 - 0,0 72 1.019,0
10:32 17,4 15,3 17,0 87,0 2,5 199 - 0,0 69 1.019,0